W4HSV Weather Reports


time (UTC)temp
C
wind
direction
speed
KPH
gust
KPH
rain 1hr
cm
rain 24hr
cm
rain mn
cm
humidity
%
barometer
mb
20260902211823 36 123 3.2 8.0 0.00 0.00 0.00 48 1016.2
20260902211753 36 109 3.2 6.4 0.00 0.00 0.00 47 1016.2
20260902211530 36 72 3.2 6.4 0.00 0.00 0.00 48 1016.2
20260902211416 36 130 4.8 9.7 0.00 0.00 0.00 47 1016.2
20260902211323 36 42 4.8 9.7 0.00 0.00 0.00 47 1016.2
20260902211230 36 41 3.2 9.7 0.00 0.00 0.00 48 1016.2
20260902211117 36 74 0.0 9.7 0.00 0.00 0.00 46 1016.2
20260902211025 36 227 0.0 9.7 0.00 0.00 0.00 46 1016.2
20260902210935 36 188 0.0 9.7 0.00 0.00 0.00 47 1016.2
20260902210821 35 169 1.6 9.7 0.00 0.00 0.00 47 1016.2
20260902210726 35 192 4.8 9.7 0.00 0.00 0.00 46 1016.2
20260902210634 35 192 4.8 9.7 0.00 0.00 0.00 48 1016.2
20260902210520 35 180 3.2 9.7 0.00 0.00 0.00 48 1016.2
20260902210431 35 114 3.2 9.7 0.00 0.00 0.00 48 1016.3
20260902210357 35 57 4.8 9.7 0.00 0.00 0.00 48 1016.3
20260902210327 35 57 6.4 9.7 0.00 0.00 0.00 48 1016.3
20260902210020 35 110 6.4 9.7 0.00 0.00 0.00 50 1016.3
20260902205928 35 121 4.8 9.7 0.00 0.00 0.00 49 1016.3
20260902205820 35 113 3.2 12.9 0.00 0.00 0.00 48 1016.3
20260902205726 35 101 3.2 12.9 0.00 0.00 0.00 49 1016.3
20260902205653 35 68 4.8 12.9 0.00 0.00 0.00 48 1016.3
20260902205518 35 105 4.8 14.5 0.00 0.00 0.00 50 1016.3
20260902205425 35 157 4.8 14.5 0.00 0.00 0.00 49 1016.4
20260902205333 35 106 4.8 14.5 0.00 0.00 0.00 48 1016.2
20260902205243 35 123 3.2 14.5 0.00 0.00 0.00 48 1016.3
20260902205128 35 120 3.2 14.5 0.00 0.00 0.00 48 1016.3
20260902205036 35 102 4.8 14.5 0.00 0.00 0.00 47 1016.3
20260902204922 35 131 8.0 14.5 0.00 0.00 0.00 48 1016.3
20260902204832 35 112 8.0 12.9 0.00 0.00 0.00 49 1016.3
20260902204805 35 131 6.4 12.9 0.00 0.00 0.00 51 1016.3
20260902204518 35 161 3.2 9.7 0.00 0.00 0.00 49 1016.3
20260902204425 35 103 4.8 9.7 0.00 0.00 0.00 48 1016.2
20260902204331 35 111 4.8 9.7 0.00 0.00 0.00 49 1016.3
20260902204219 35 123 4.8 9.7 0.00 0.00 0.00 52 1016.3
20260902204129 35 113 1.6 8.0 0.00 0.00 0.00 48 1016.2
20260902204035 35 157 1.6 6.4 0.00 0.00 0.00 49 1016.3
20260902203942 35 93 1.6 6.4 0.00 0.00 0.00 48 1016.3
20260902203828 35 97 3.2 6.4 0.00 0.00 0.00 48 1016.2
20260902203735 35 112 3.2 6.4 0.00 0.00 0.00 49 1016.2
20260902203620 35 134 3.2 6.4 0.00 0.00 0.00 50 1016.3
20260902203532 35 135 1.6 6.4 0.00 0.00 0.00 51 1016.3
20260902203419 35 99 1.6 9.7 0.00 0.00 0.00 52 1016.3
20260902203326 35 95 3.2 9.7 0.00 0.00 0.00 51 1016.3
20260902203258 35 112 3.2 9.7 0.00 0.00 0.00 51 1016.3
20260902203030 35 119 3.2 9.7 0.00 0.00 0.00 51 1016.3
20260902202919 35 130 1.6 9.7 0.00 0.00 0.00 49 1016.3
20260902202826 35 132 1.6 9.7 0.00 0.00 0.00 49 1016.4
20260902202733 35 113 3.2 9.7 0.00 0.00 0.00 49 1016.3
20260902202621 35 153 3.2 9.7 0.00 0.00 0.00 49 1016.4
20260902202529 35 73 3.2 4.8 0.00 0.00 0.00 50 1016.4
20260902202420 35 90 3.2 6.4 0.00 0.00 0.00 53 1016.3
20260902202328 35 127 3.2 6.4 0.00 0.00 0.00 49 1016.5
20260902202236 35 134 3.2 6.4 0.00 0.00 0.00 51 1016.4
20260902202123 35 235 1.6 6.4 0.00 0.00 0.00 50 1016.5
20260902202030 35 146 1.6 6.4 0.00 0.00 0.00 49 1016.5
20260902201921 35 137 3.2 6.4 0.00 0.00 0.00 49 1016.4
20260902201828 35 160 3.2 6.4 0.00 0.00 0.00 51 1016.6
20260902201759 35 156 3.2 6.4 0.00 0.00 0.00 51 1016.6
20260902201533 35 115 3.2 9.7 0.00 0.00 0.00 49 1016.6
20260902201420 35 91 3.2 9.7 0.00 0.00 0.00 49 1016.6
20260902201331 35 88 3.2 9.7 0.00 0.00 0.00 49 1016.6
20260902201220 35 142 3.2 9.7 0.00 0.00 0.00 50 1016.6
20260902201128 35 143 3.2 9.7 0.00 0.00 0.00 49 1016.7
20260902201033 35 119 3.2 9.7 0.00 0.00 0.00 51 1016.7
20260902200921 35 144 3.2 9.7 0.00 0.00 0.00 50 1016.7
20260902200831 35 108 4.8 11.3 0.00 0.00 0.00 49 1016.7
20260902200717 35 92 6.4 11.3 0.00 0.00 0.00 50 1016.7
20260902200645 35 82 6.4 11.3 0.00 0.00 0.00 50 1016.7
20260902200531 35 141 8.0 12.9 0.00 0.00 0.00 50 1016.8
20260902200417 35 132 6.4 12.9 0.00 0.00 0.00 50 1016.8
20260902200324 35 128 6.4 14.5 0.00 0.00 0.00 52 1016.8
20260902200259 35 86 6.4 14.5 0.00 0.00 0.00 52 1016.8
20260902200031 35 119 8.0 14.5 0.00 0.00 0.00 50 1016.8
20260902195919 35 119 8.0 14.5 0.00 0.00 0.00 53 1016.9
20260902195827 35 105 9.7 14.5 0.00 0.00 0.00 51 1016.9
20260902195719 35 98 8.0 14.5 0.00 0.00 0.00 51 1016.9
20260902195625 35 123 6.4 14.5 0.00 0.00 0.00 50 1017.0
20260902195532 35 96 6.4 14.5 0.00 0.00 0.00 52 1017.0
20260902195419 35 128 8.0 14.5 0.00 0.00 0.00 52 1016.9
20260902195346 35 111 6.4 14.5 0.00 0.00 0.00 51 1016.8
20260902195231 35 163 8.0 12.9 0.00 0.00 0.00 51 1016.9
20260902195122 36 86 8.0 12.9 0.00 0.00 0.00 51 1016.9
20260902195048 36 60 6.4 12.9 0.00 0.00 0.00 52 1016.9
20260902194933 36 132 8.0 12.9 0.00 0.00 0.00 50 1016.9
20260902194842 36 125 6.4 12.9 0.00 0.00 0.00 52 1016.9
20260902194812 36 84 6.4 12.9 0.00 0.00 0.00 51 1016.9
20260902194524 36 88 4.8 12.9 0.00 0.00 0.00 49 1017.0
20260902194456 36 86 3.2 12.9 0.00 0.00 0.00 49 1016.9
20260902194321 36 154 4.8 12.9 0.00 0.00 0.00 48 1016.9
20260902194229 36 117 6.4 12.9 0.00 0.00 0.00 48 1016.9
20260902194137 36 110 8.0 12.9 0.00 0.00 0.00 51 1017.0
20260902194042 36 69 8.0 12.9 0.00 0.00 0.00 50 1017.0
20260902193947 36 121 8.0 12.9 0.00 0.00 0.00 50 1017.0
20260902193834 36 98 4.8 12.9 0.00 0.00 0.00 48 1017.0
20260902193745 36 85 1.6 9.7 0.00 0.00 0.00 49 1017.0
20260902193631 36 171 3.2 9.7 0.00 0.00 0.00 50 1017.1
20260902193538 36 190 4.8 9.7 0.00 0.00 0.00 48 1017.1
20260902193444 36 186 6.4 9.7 0.00 0.00 0.00 50 1017.1
20260902193410 36 114 4.8 11.3 0.00 0.00 0.00 53 1017.1
20260902193320 36 163 4.8 14.5 0.00 0.00 0.00 54 1017.1
20260902193018 35 126 4.8 14.5 0.00 0.00 0.00 48 1017.1
20260902192922 35 188 6.4 14.5 0.00 0.00 0.00 49 1017.1
20260902192827 35 167 6.4 14.5 0.00 0.00 0.00 49 1017.1
20260902192736 35 178 8.0 14.5 0.00 0.00 0.00 51 1017.1
20260902192622 35 201 9.7 14.5 0.00 0.00 0.00 50 1017.2
20260902192531 35 184 8.0 14.5 0.00 0.00 0.00 50 1017.2
20260902192422 35 189 3.2 11.3 0.00 0.00 0.00 50 1017.2
20260902192349 35 133 0.0 12.9 0.00 0.00 0.00 49 1017.2
20260902192255 35 133 1.6 12.9 0.00 0.00 0.00 50 1017.2
20260902192121 35 133 1.6 12.9 0.00 0.00 0.00 49 1017.2
20260902192027 35 133 3.2 12.9 0.00 0.00 0.00 49 1017.2
20260902191934 35 151 4.8 12.9 0.00 0.00 0.00 48 1017.2
20260902191826 35 154 6.4 12.9 0.00 0.00 0.00 50 1017.2
20260902191756 35 63 6.4 12.9 0.00 0.00 0.00 50 1017.2
20260902191528 35 169 4.8 12.9 0.00 0.00 0.00 49 1017.2
20260902191435 35 175 3.2 4.8 0.00 0.00 0.00 48 1017.3
20260902191321 35 222 1.6 4.8 0.00 0.00 0.00 48 1017.2
20260902191233 35 333 0.0 4.8 0.00 0.00 0.00 48 1017.3
20260902191121 35 333 1.6 6.4 0.00 0.00 0.00 48 1017.2
20260902191028 35 333 3.2 11.3 0.00 0.00 0.00 51 1017.4
20260902190934 35 328 1.6 11.3 0.00 0.00 0.00 49 1017.3
20260902190821 35 167 1.6 11.3 0.00 0.00 0.00 49 1017.3
20260902190748 35 167 1.6 11.3 0.00 0.00 0.00 48 1017.4
20260902190619 35 167 3.2 11.3 0.00 0.00 0.00 48 1017.4
20260902190528 35 167 3.2 11.3 0.00 0.00 0.00 47 1017.4
20260902190435 35 119 3.2 11.3 0.00 0.00 0.00 46 1017.4
20260902190321 36 154 4.8 11.3 0.00 0.00 0.00 47 1017.4
20260902190256 36 126 4.8 11.3 0.00 0.00 0.00 47 1017.4
20260902190029 36 24 3.2 6.4 0.00 0.00 0.00 48 1017.5
20260902185937 36 122 1.6 6.4 0.00 0.00 0.00 45 1017.5
20260902185823 36 179 1.6 6.4 0.00 0.00 0.00 45 1017.5
20260902185730 36 179 1.6 6.4 0.00 0.00 0.00 45 1017.6
20260902185657 36 179 1.6 9.7 0.00 0.00 0.00 45 1017.5
20260902185522 36 169 1.6 9.7 0.00 0.00 0.00 45 1017.6
20260902185434 36 113 3.2 9.7 0.00 0.00 0.00 46 1017.5
20260902185340 36 48 3.2 9.7 0.00 0.00 0.00 48 1017.5
20260902185226 36 43 3.2 9.7 0.00 0.00 0.00 48 1017.6
20260902185154 36 26 4.8 9.7 0.00 0.00 0.00 47 1017.5
20260902185018 36 9 3.2 9.7 0.00 0.00 0.00 46 1017.6
20260902184926 36 254 4.8 9.7 0.00 0.00 0.00 48 1017.7
20260902184854 36 5 4.8 9.7 0.00 0.00 0.00 48 1017.7
20260902184829 36 43 6.4 12.9 0.00 0.00 0.00 50 1017.6
20260902184522 36 18 6.4 14.5 0.00 0.00 0.00 48 1017.6
20260902184450 36 24 6.4 14.5 0.00 0.00 0.00 50 1017.6
20260902184335 36 25 4.8 14.5 0.00 0.00 0.00 49 1017.5
20260902184227 36 286 4.8 14.5 0.00 0.00 0.00 48 1017.6
20260902184134 36 36 6.4 14.5 0.00 0.00 0.00 51 1017.7
20260902184021 36 344 8.0 14.5 0.00 0.00 0.00 51 1017.6
20260902183928 36 355 9.7 14.5 0.00 0.00 0.00 52 1017.6
20260902183835 36 336 9.7 14.5 0.00 0.00 0.00 52 1017.7
20260902183721 36 5 6.4 14.5 0.00 0.00 0.00 50 1017.6
20260902183633 36 5 4.8 14.5 0.00 0.00 0.00 49 1017.6
20260902183519 36 336 4.8 14.5 0.00 0.00 0.00 51 1017.6
20260902183447 36 339 4.8 14.5 0.00 0.00 0.00 49 1017.6
20260902183334 36 284 3.2 14.5 0.00 0.00 0.00 50 1017.7
20260902183305 36 296 4.8 14.5 0.00 0.00 0.00 51 1017.7
20260902183022 35 107 8.0 14.5 0.00 0.00 0.00 52 1017.7
20260902182927 35 76 9.7 14.5 0.00 0.00 0.00 53 1017.7
20260902182834 35 43 9.7 11.3 0.00 0.00 0.00 53 1017.7
20260902182740 35 37 6.4 11.3 0.00 0.00 0.00 53 1017.7
20260902182647 35 24 3.2 9.7 0.00 0.00 0.00 51 1017.7
20260902182552 35 321 1.6 9.7 0.00 0.00 0.00 51 1017.7
20260902182438 35 79 3.2 9.7 0.00 0.00 0.00 51 1017.7
20260902182327 35 79 3.2 9.7 0.00 0.00 0.00 51 1017.7
20260902182235 35 101 1.6 9.7 0.00 0.00 0.00 53 1017.7
20260902182120 35 133 3.2 11.3 0.00 0.00 0.00 51 1017.7
20260902182048 35 121 3.2 11.3 0.00 0.00 0.00 52 1017.7
20260902181934 35 67 4.8 11.3 0.00 0.00 0.00 53 1017.7
20260902181823 35 82 4.8 14.5 0.00 0.00 0.00 55 1017.9
20260902181757 35 71 4.8 14.5 0.00 0.00 0.00 55 1017.9
20260902181532 35 134 4.8 14.5 0.00 0.00 0.00 52 1017.9
20260902181418 35 196 8.0 14.5 0.00 0.00 0.00 52 1017.9
20260902181327 35 184 6.4 14.5 0.00 0.00 0.00 52 1017.9
20260902181232 35 182 6.4 14.5 0.00 0.00 0.00 52 1017.9
20260902181125 35 152 9.7 14.5 0.00 0.00 0.00 54 1018.0
20260902181031 35 150 8.0 14.5 0.00 0.00 0.00 54 1017.9
20260902180918 35 92 3.2 11.3 0.00 0.00 0.00 50 1017.9
20260902180825 35 146 3.2 11.3 0.00 0.00 0.00 49 1018.0
20260902180732 35 135 4.8 11.3 0.00 0.00 0.00 50 1018.0
20260902180642 36 124 6.4 11.3 0.00 0.00 0.00 51 1018.0
20260902180529 36 164 4.8 9.7 0.00 0.00 0.00 50 1018.0
20260902180435 36 125 4.8 9.7 0.00 0.00 0.00 52 1018.0
20260902180343 36 86 4.8 9.7 0.00 0.00 0.00 53 1018.1
20260902180313 36 68 3.2 9.7 0.00 0.00 0.00 53 1018.1
20260902180029 36 57 1.6 6.4 0.00 0.00 0.00 51 1018.1
20260902175936 36 63 1.6 6.4 0.00 0.00 0.00 52 1018.2
20260902175844 36 186 3.2 6.4 0.00 0.00 0.00 49 1018.2
20260902175730 36 276 3.2 6.4 0.00 0.00 0.00 49 1018.2
20260902175616 36 315 1.6 6.4 0.00 0.00 0.00 52 1018.2
20260902175523 36 106 1.6 6.4 0.00 0.00 0.00 49 1018.3
20260902175434 36 184 3.2 6.4 0.00 0.00 0.00 49 1018.3
20260902175322 36 232 3.2 6.4 0.00 0.00 0.00 50 1018.3
20260902175228 36 242 3.2 6.4 0.00 0.00 0.00 51 1018.2
20260902175135 36 271 3.2 8.0 0.00 0.00 0.00 52 1018.2
20260902175021 36 316 3.2 8.0 0.00 0.00 0.00 52 1018.3
20260902174928 35 355 3.2 8.0 0.00 0.00 0.00 53 1018.3
20260902174859 35 311 4.8 8.0 0.00 0.00 0.00 53 1018.3
20260902174830 35 311 3.2 8.0 0.00 0.00 0.00 52 1018.3
20260902174522 35 61 1.6 9.7 0.00 0.00 0.00 50 1018.3
20260902174429 35 5 3.2 12.9 0.00 0.00 0.00 52 1018.3
20260902174320 35 5 4.8 12.9 0.00 0.00 0.00 52 1018.4
20260902174227 35 21 4.8 12.9 0.00 0.00 0.00 54 1018.4
20260902174135 35 40 3.2 12.9 0.00 0.00 0.00 52 1018.5
20260902174021 35 341 3.2 12.9 0.00 0.00 0.00 51 1018.5
20260902173949 35 355 4.8 12.9 0.00 0.00 0.00 53 1018.6
20260902173835 35 18 8.0 12.9 0.00 0.00 0.00 53 1018.5
20260902173725 35 360 6.4 12.9 0.00 0.00 0.00 52 1018.6
20260902173632 35 9 4.8 12.9 0.00 0.00 0.00 53 1018.5
20260902173538 35 266 3.2 6.4 0.00 0.00 0.00 52 1018.6
20260902173424 35 327 3.2 6.4 0.00 0.00 0.00 53 1018.6
20260902173330 35 165 1.6 6.4 0.00 0.00 0.00 52 1018.6
20260902173303 35 205 1.6 6.4 0.00 0.00 0.00 55 1018.6
20260902173017 35 120 3.2 8.0 0.00 0.00 0.00 50 1018.5
20260902172924 35 165 3.2 8.0 0.00 0.00 0.00 52 1018.6
20260902172832 35 122 4.8 8.0 0.00 0.00 0.00 51 1018.7
20260902172720 35 17 3.2 8.0 0.00 0.00 0.00 53 1018.7
20260902172626 35 85 3.2 8.0 0.00 0.00 0.00 52 1018.8
20260902172532 35 87 3.2 8.0 0.00 0.00 0.00 52 1018.8
20260902172442 35 46 1.6 8.0 0.00 0.00 0.00 52 1018.8
20260902172328 35 334 3.2 8.0 0.00 0.00 0.00 53 1018.9
20260902172235 35 338 4.8 8.0 0.00 0.00 0.00 55 1018.8
20260902172123 35 54 1.6 6.4 0.00 0.00 0.00 52 1018.8
20260902172030 35 5 1.6 6.4 0.00 0.00 0.00 51 1018.8
20260902171921 35 46 1.6 8.0 0.00 0.00 0.00 52 1018.9
20260902171828 35 46 4.8 8.0 0.00 0.00 0.00 54 1018.9
20260902171757 35 46 4.8 9.7 0.00 0.00 0.00 54 1018.9
20260902171531 35 53 3.2 9.7 0.00 0.00 0.00 56 1018.9
20260902171417 35 5 4.8 9.7 0.00 0.00 0.00 54 1018.8
20260902171329 35 39 4.8 14.5 0.00 0.00 0.00 53 1018.9
20260902171217 35 17 4.8 14.5 0.00 0.00 0.00 55 1018.9
20260902171123 35 42 4.8 14.5 0.00 0.00 0.00 56 1018.9
20260902171029 35 24 6.4 14.5 0.00 0.00 0.00 56 1019.0
20260902170935 35 27 6.4 14.5 0.00 0.00 0.00 57 1019.0
20260902170826 35 17 4.8 14.5 0.00 0.00 0.00 55 1018.9
20260902170733 35 30 3.2 14.5 0.00 0.00 0.00 55 1019.1
20260902170639 35 34 6.4 14.5 0.00 0.00 0.00 56 1019.0
20260902170526 35 42 9.7 14.5 0.00 0.00 0.00 57 1019.0
20260902170432 35 34 8.0 14.5 0.00 0.00 0.00 58 1019.1
20260902170319 35 40 6.4 9.7 0.00 0.00 0.00 57 1019.1
20260902170254 34 28 4.8 9.7 0.00 0.00 0.00 58 1019.1
20260902170028 34 29 3.2 9.7 0.00 0.00 0.00 58 1019.2
20260902165936 34 77 1.6 8.0 0.00 0.00 0.00 56 1019.2
20260902165824 34 39 3.2 8.0 0.00 0.00 0.00 59 1019.1
20260902165732 34 297 3.2 8.0 0.00 0.00 0.00 59 1019.2
20260902165621 34 319 3.2 8.0 0.00 0.00 0.00 58 1019.2
20260902165528 34 347 1.6 9.7 0.00 0.00 0.00 56 1019.2
20260902165434 34 298 1.6 11.3 0.00 0.00 0.00 56 1019.2
20260902165322 34 298 3.2 11.3 0.00 0.00 0.00 56 1019.2
20260902165230 34 236 3.2 11.3 0.00 0.00 0.00 55 1019.3
20260902165119 34 140 3.2 11.3 0.00 0.00 0.00 56 1019.3
20260902165028 34 103 3.2 11.3 0.00 0.00 0.00 56 1019.2
20260902164956 34 196 3.2 12.9 0.00 0.00 0.00 56 1019.3
20260902164903 34 104 6.4 12.9 0.00 0.00 0.00 56 1019.3
20260902164812 34 101 6.4 12.9 0.00 0.00 0.00 57 1019.3
20260902164523 34 123 1.6 12.9 0.00 0.00 0.00 55 1019.3
20260902164433 34 107 1.6 12.9 0.00 0.00 0.00 55 1019.3
20260902164320 34 117 4.8 12.9 0.00 0.00 0.00 55 1019.3
20260902164227 35 136 6.4 12.9 0.00 0.00 0.00 55 1019.4
20260902164135 35 109 6.4 12.9 0.00 0.00 0.00 55 1019.4
20260902164040 35 114 8.0 12.9 0.00 0.00 0.00 54 1019.4
20260902163926 35 133 9.7 12.9 0.00 0.00 0.00 58 1019.4
20260902163818 35 119 8.0 12.9 0.00 0.00 0.00 58 1019.4
20260902163726 35 111 6.4 11.3 0.00 0.00 0.00 56 1019.5
20260902163633 35 67 4.8 9.7 0.00 0.00 0.00 56 1019.4
20260902163521 35 79 1.6 6.4 0.00 0.00 0.00 54 1019.4
20260902163427 35 327 1.6 6.4 0.00 0.00 0.00 54 1019.5
20260902163338 35 92 3.2 6.4 0.00 0.00 0.00 53 1019.5
20260902163307 35 92 3.2 9.7 0.00 0.00 0.00 53 1019.5
20260902163021 35 76 1.6 9.7 0.00 0.00 0.00 57 1019.5
20260902162929 35 219 3.2 9.7 0.00 0.00 0.00 56 1019.5
20260902162820 35 11 3.2 9.7 0.00 0.00 0.00 56 1019.4
20260902162727 35 5 3.2 9.7 0.00 0.00 0.00 56 1019.5
20260902162635 35 27 3.2 9.7 0.00 0.00 0.00 57 1019.5
20260902162521 35 192 4.8 9.7 0.00 0.00 0.00 58 1019.4
20260902162428 35 138 4.8 9.7 0.00 0.00 0.00 54 1019.5
20260902162335 35 115 3.2 9.7 0.00 0.00 0.00 54 1019.5
20260902162226 35 85 4.8 9.7 0.00 0.00 0.00 54 1019.6
20260902162153 35 74 4.8 9.7 0.00 0.00 0.00 55 1019.5
20260902162019 35 49 6.4 9.7 0.00 0.00 0.00 54 1019.5
20260902161926 35 84 4.8 9.7 0.00 0.00 0.00 55 1019.5
20260902161834 35 39 3.2 9.7 0.00 0.00 0.00 57 1019.5
20260902161809 35 35 1.6 9.7 0.00 0.00 0.00 55 1019.5
20260902161523 35 311 1.6 9.7 0.00 0.00 0.00 56 1019.6
20260902161429 35 311 3.2 9.7 0.00 0.00 0.00 56 1019.6
20260902161336 35 355 4.8 9.7 0.00 0.00 0.00 56 1019.6
20260902161224 35 19 6.4 9.7 0.00 0.00 0.00 56 1019.6
20260902161134 35 360 6.4 9.7 0.00 0.00 0.00 56 1019.5
20260902161021 35 24 6.4 9.7 0.00 0.00 0.00 58 1019.6
20260902160929 34 44 3.2 11.3 0.00 0.00 0.00 56 1019.5
20260902160816 34 5 3.2 9.7 0.00 0.00 0.00 56 1019.5
20260902160722 34 26 3.2 9.7 0.00 0.00 0.00 57 1019.5
20260902160628 34 26 6.4 9.7 0.00 0.00 0.00 57 1019.6
20260902160536 34 36 6.4 9.7 0.00 0.00 0.00 58 1019.6
20260902160424 34 38 4.8 9.7 0.00 0.00 0.00 57 1019.6
20260902160329 34 10 3.2 8.0 0.00 0.00 0.00 57 1019.6
20260902160259 34 40 1.6 8.0 0.00 0.00 0.00 57 1019.6
20260902160033 34 101 1.6 8.0 0.00 0.00 0.00 58 1019.6
20260902155923 34 92 1.6 8.0 0.00 0.00 0.00 55 1019.6
20260902155832 34 171 3.2 8.0 0.00 0.00 0.00 55 1019.6
20260902155718 35 188 1.6 8.0 0.00 0.00 0.00 55 1019.5
20260902155626 35 348 0.0 8.0 0.00 0.00 0.00 54 1019.5
20260902155534 35 52 1.6 8.0 0.00 0.00 0.00 54 1019.6
20260902155426 35 46 3.2 8.0 0.00 0.00 0.00 54 1019.6
20260902155353 35 46 4.8 8.0 0.00 0.00 0.00 56 1019.6
20260902155217 35 71 3.2 6.4 0.00 0.00 0.00 55 1019.6
20260902155144 35 48 1.6 6.4 0.00 0.00 0.00 55 1019.5
20260902155031 35 52 1.6 8.0 0.00 0.00 0.00 58 1019.6
20260902154916 34 329 1.6 8.0 0.00 0.00 0.00 57 1019.6
20260902154824 34 329 3.2 8.0 0.00 0.00 0.00 56 1019.6
20260902154758 34 341 3.2 8.0 0.00 0.00 0.00 56 1019.6
20260902154531 34 33 3.2 8.0 0.00 0.00 0.00 58 1019.6
20260902154418 34 355 3.2 8.0 0.00 0.00 0.00 59 1019.6
20260902154324 34 360 4.8 8.0 0.00 0.00 0.00 59 1019.6
20260902154235 34 23 4.8 8.0 0.00 0.00 0.00 58 1019.7
20260902154123 34 30 6.4 8.0 0.00 0.00 0.00 58 1019.7
20260902154050 34 40 6.4 8.0 0.00 0.00 0.00 57 1019.6
20260902153934 34 17 4.8 8.0 0.00 0.00 0.00 59 1019.7
20260902153821 34 355 1.6 6.4 0.00 0.00 0.00 56 1019.7
20260902153748 34 293 1.6 6.4 0.00 0.00 0.00 59 1019.7
20260902153619 33 329 3.2 6.4 0.00 0.00 0.00 61 1019.7
20260902153526 33 329 3.2 6.4 0.00 0.00 0.00 57 1019.7
20260902153452 33 16 1.6 8.0 0.00 0.00 0.00 56 1019.7
20260902153359 33 290 3.2 8.0 0.00 0.00 0.00 56 1019.6
20260902153306 33 243 3.2 8.0 0.00 0.00 0.00 56 1019.6
20260902153019 33 78 4.8 8.0 0.00 0.00 0.00 57 1019.7
20260902152929 33 34 4.8 9.7 0.00 0.00 0.00 58 1019.7
20260902152836 33 63 3.2 9.7 0.00 0.00 0.00 56 1019.7
20260902152723 33 82 4.8 9.7 0.00 0.00 0.00 58 1019.7
20260902152651 33 121 3.2 9.7 0.00 0.00 0.00 57 1019.7
20260902152557 33 57 1.6 9.7 0.00 0.00 0.00 58 1019.6
20260902152422 33 37 4.8 9.7 0.00 0.00 0.00 59 1019.8
20260902152333 33 37 6.4 9.7 0.00 0.00 0.00 59 1019.8
20260902152219 33 31 6.4 9.7 0.00 0.00 0.00 59 1019.7
20260902152144 33 37 6.4 9.7 0.00 0.00 0.00 59 1019.8
20260902152030 33 36 6.4 9.7 0.00 0.00 0.00 57 1019.7
20260902151916 33 64 4.8 8.0 0.00 0.00 0.00 58 1019.7
20260902151824 33 62 4.8 8.0 0.00 0.00 0.00 59 1019.8
20260902151759 33 53 4.8 8.0 0.00 0.00 0.00 59 1019.8
20260902151533 33 355 6.4 8.0 0.00 0.00 0.00 59 1019.7
20260902151440 33 11 4.8 8.0 0.00 0.00 0.00 57 1019.6
20260902151347 33 32 3.2 8.0 0.00 0.00 0.00 58 1019.7
20260902151233 33 5 3.2 8.0 0.00 0.00 0.00 59 1019.7
20260902151124 33 34 4.8 8.0 0.00 0.00 0.00 59 1019.7
20260902151031 33 22 4.8 8.0 0.00 0.00 0.00 59 1019.7
20260902150918 33 35 6.4 8.0 0.00 0.00 0.00 59 1019.7
20260902150846 33 36 4.8 8.0 0.00 0.00 0.00 59 1019.6
20260902150731 32 30 3.2 6.4 0.00 0.00 0.00 58 1019.6
20260902150618 32 120 3.2 9.7 0.00 0.00 0.00 58 1019.6
20260902150530 32 69 4.8 9.7 0.00 0.00 0.00 61 1019.6
20260902150436 32 46 3.2 9.7 0.00 0.00 0.00 59 1019.6
20260902150323 32 36 4.8 9.7 0.00 0.00 0.00 62 1019.6
20260902150253 32 52 4.8 9.7 0.00 0.00 0.00 62 1019.6
20260902150027 32 201 4.8 9.7 0.00 0.00 0.00 59 1019.5
20260902145917 32 194 4.8 9.7 0.00 0.00 0.00 59 1019.5
20260902145825 32 203 6.4 9.7 0.00 0.00 0.00 60 1019.5
20260902145732 32 150 4.8 8.0 0.00 0.00 0.00 61 1019.5
20260902145618 32 157 1.6 4.8 0.00 0.00 0.00 62 1019.5
20260902145546 32 285 1.6 4.8 0.00 0.00 0.00 61 1019.5
20260902145432 32 360 1.6 4.8 0.00 0.00 0.00 61 1019.5
20260902145323 32 42 1.6 4.8 0.00 0.00 0.00 61 1019.5
20260902145229 32 42 3.2 4.8 0.00 0.00 0.00 61 1019.5
20260902145156 32 50 1.6 4.8 0.00 0.00 0.00 62 1019.5
20260902145022 32 134 0.0 4.8 0.00 0.00 0.00 62 1019.5
20260902144929 32 213 1.6 4.8 0.00 0.00 0.00 61 1019.5
20260902144835 32 213 1.6 4.8 0.00 0.00 0.00 62 1019.5
20260902144810 32 213 3.2 6.4 0.00 0.00 0.00 62 1019.5
20260902144542 32 261 3.2 9.7 0.00 0.00 0.00 63 1019.5
20260902144428 32 286 3.2 9.7 0.00 0.00 0.00 62 1019.6
20260902144334 32 277 3.2 9.7 0.00 0.00 0.00 61 1019.4
20260902144225 32 205 1.6 9.7 0.00 0.00 0.00 61 1019.5
20260902144131 32 207 1.6 9.7 0.00 0.00 0.00 63 1019.5
20260902144018 32 216 1.6 9.7 0.00 0.00 0.00 63 1019.5
20260902143925 32 207 1.6 9.7 0.00 0.00 0.00 62 1019.5
20260902143832 32 219 3.2 9.7 0.00 0.00 0.00 62 1019.5
20260902143719 32 195 3.2 9.7 0.00 0.00 0.00 64 1019.6
20260902143651 32 191 3.2 9.7 0.00 0.00 0.00 64 1019.5
20260902143517 32 166 1.6 9.7 0.00 0.00 0.00 65 1019.6
20260902143425 32 205 3.2 9.7 0.00 0.00 0.00 65 1019.5
20260902143331 32 175 3.2 9.7 0.00 0.00 0.00 65 1019.6
20260902143301 32 87 4.8 9.7 0.00 0.00 0.00 64 1019.6
20260902143018 31 146 4.8 9.7 0.00 0.00 0.00 65 1019.5
20260902142926 31 147 3.2 6.4 0.00 0.00 0.00 66 1019.5
20260902142853 31 111 1.6 6.4 0.00 0.00 0.00 65 1019.5
20260902142718 31 109 1.6 6.4 0.00 0.00 0.00 65 1019.5
20260902142624 31 90 1.6 6.4 0.00 0.00 0.00 65 1019.6
20260902142530 31 93 3.2 6.4 0.00 0.00 0.00 66 1019.5
20260902142420 31 89 4.8 6.4 0.00 0.00 0.00 66 1019.5
20260902142326 31 84 3.2 6.4 0.00 0.00 0.00 66 1019.5
20260902142233 31 89 3.2 6.4 0.00 0.00 0.00 67 1019.5
20260902142121 31 126 3.2 6.4 0.00 0.00 0.00 66 1019.5
20260902142048 31 103 3.2 6.4 0.00 0.00 0.00 65 1019.6
20260902141918 31 138 3.2 6.4 0.00 0.00 0.00 66 1019.5
20260902141845 31 111 3.2 6.4 0.00 0.00 0.00 66 1019.5
20260902141816 31 81 3.2 6.4 0.00 0.00 0.00 69 1019.5
20260902141527 31 174 3.2 6.4 0.00 0.00 0.00 68 1019.4
20260902141434 31 185 3.2 6.4 0.00 0.00 0.00 68 1019.3
20260902141340 31 207 1.6 4.8 0.00 0.00 0.00 68 1019.4
20260902141230 31 110 3.2 6.4 0.00 0.00 0.00 68 1019.3
20260902141117 31 155 3.2 6.4 0.00 0.00 0.00 69 1019.4
20260902141044 30 55 3.2 6.4 0.00 0.00 0.00 70 1019.4
20260902140929 30 51 3.2 6.4 0.00 0.00 0.00 70 1019.4
20260902140838 30 87 3.2 6.4 0.00 0.00 0.00 70 1019.4
20260902140724 30 65 1.6 6.4 0.00 0.00 0.00 71 1019.3
20260902140652 30 63 1.6 6.4 0.00 0.00 0.00 72 1019.4
20260902140521 30 196 1.6 6.4 0.00 0.00 0.00 69 1019.4
20260902140429 30 196 3.2 6.4 0.00 0.00 0.00 69 1019.4
20260902140336 30 213 4.8 8.0 0.00 0.00 0.00 70 1019.4
20260902140307 30 178 4.8 8.0 0.00 0.00 0.00 71 1019.4
20260902140022 30 128 1.6 8.0 0.00 0.00 0.00 71 1019.3
20260902135929 30 129 3.2 8.0 0.00 0.00 0.00 70 1019.4
20260902135817 30 134 3.2 8.0 0.00 0.00 0.00 70 1019.3
20260902135725 30 108 3.2 8.0 0.00 0.00 0.00 69 1019.3
20260902135630 30 188 3.2 8.0 0.00 0.00 0.00 70 1019.3
20260902135520 30 90 4.8 8.0 0.00 0.00 0.00 70 1019.3
20260902135427 30 119 4.8 8.0 0.00 0.00 0.00 70 1019.4
20260902135354 30 144 4.8 8.0 0.00 0.00 0.00 70 1019.5
20260902135222 30 131 3.2 6.4 0.00 0.00 0.00 70 1019.4
20260902135128 30 109 3.2 6.4 0.00 0.00 0.00 69 1019.4
20260902135055 30 123 4.8 6.4 0.00 0.00 0.00 69 1019.3
20260902134941 30 114 3.2 6.4 0.00 0.00 0.00 69 1019.4
20260902134833 30 165 1.6 6.4 0.00 0.00 0.00 70 1019.4
20260902134804 30 147 1.6 6.4 0.00 0.00 0.00 70 1019.4
20260902134517 30 120 1.6 4.8 0.00 0.00 0.00 70 1019.4
20260902134421 30 120 1.6 4.8 0.00 0.00 0.00 69 1019.3
20260902134330 30 120 1.6 4.8 0.00 0.00 0.00 70 1019.4
20260902134220 30 113 3.2 4.8 0.00 0.00 0.00 70 1019.4
20260902134126 30 113 3.2 4.8 0.00 0.00 0.00 70 1019.5
20260902134054 30 100 3.2 4.8 0.00 0.00 0.00 71 1019.5
20260902133921 30 72 1.6 4.8 0.00 0.00 0.00 72 1019.5
20260902133828 30 97 0.0 4.8 0.00 0.00 0.00 71 1019.5
20260902133755 30 66 1.6 4.8 0.00 0.00 0.00 71 1019.4
20260902133642 30 65 3.2 4.8 0.00 0.00 0.00 71 1019.4
20260902133547 30 75 3.2 4.8 0.00 0.00 0.00 71 1019.5
20260902133435 30 115 1.6 4.8 0.00 0.00 0.00 72 1019.5
20260902133341 30 115 3.2 4.8 0.00 0.00 0.00 72 1019.5
20260902133312 29 89 3.2 4.8 0.00 0.00 0.00 72 1019.5
20260902133045 29 104 1.6 4.8 0.00 0.00 0.00 72 1019.5
20260902132931 29 117 1.6 4.8 0.00 0.00 0.00 72 1019.5
20260902132822 29 117 1.6 4.8 0.00 0.00 0.00 73 1019.5
20260902132729 29 115 1.6 4.8 0.00 0.00 0.00 73 1019.5
20260902132656 29 116 1.6 4.8 0.00 0.00 0.00 73 1019.5
20260902132522 29 88 1.6 4.8 0.00 0.00 0.00 74 1019.5
20260902132428 29 101 1.6 4.8 0.00 0.00 0.00 73 1019.5
20260902132335 29 145 1.6 4.8 0.00 0.00 0.00 74 1019.5
20260902132225 29 145 1.6 4.8 0.00 0.00 0.00 74 1019.5
20260902132131 29 145 1.6 4.8 0.00 0.00 0.00 74 1019.5
20260902132017 29 145 1.6 4.8 0.00 0.00 0.00 73 1019.5
20260902131924 29 145 1.6 4.8 0.00 0.00 0.00 74 1019.5
20260902131831 29 145 1.6 4.8 0.00 0.00 0.00 74 1019.5
20260902131804 28 145 0.0 3.2 0.00 0.00 0.00 74 1019.5
20260902131518 28 355 0.0 0.0 0.00 0.00 0.00 74 1019.5
20260902131424 28 355 0.0 0.0 0.00 0.00 0.00 75 1019.5
20260902131350 28 355 0.0 0.0 0.00 0.00 0.00 76 1019.5
20260902131236 28 355 0.0 0.0 0.00 0.00 0.00 76 1019.5
20260902131123 28 355 0.0 0.0 0.00 0.00 0.00 76 1019.5
20260902131016 28 355 0.0 0.0 0.00 0.00 0.00 76 1019.5
20260902130944 28 355 0.0 0.0 0.00 0.00 0.00 76 1019.5
20260902130830 28 355 0.0 0.0 0.00 0.00 0.00 77 1019.5
20260902130717 28 355 0.0 0.0 0.00 0.00 0.00 76 1019.5
20260902130623 28 355 0.0 0.0 0.00 0.00 0.00 77 1019.5
20260902130531 28 355 0.0 0.0 0.00 0.00 0.00 77 1019.4
20260902130422 27 355 0.0 0.0 0.00 0.00 0.00 78 1019.5
20260902130329 27 355 0.0 0.0 0.00 0.00 0.00 78 1019.4
20260902130300 27 355 0.0 0.0 0.00 0.00 0.00 78 1019.4
20260902130032 27 355 0.0 0.0 0.00 0.00 0.00 78 1019.4
20260902125956 27 355 0.0 0.0 0.00 0.00 0.00 79 1019.3
20260902125826 27 355 0.0 0.0 0.00 0.00 0.00 79 1019.3
20260902125734 27 355 0.0 0.0 0.00 0.00 0.00 80 1019.3
20260902125622 27 355 0.0 0.0 0.00 0.00 0.00 80 1019.3
20260902125530 26 355 0.0 0.0 0.00 0.00 0.00 81 1019.2
20260902125436 26 355 0.0 1.6 0.00 0.00 0.00 81 1019.3
20260902125327 26 355 0.0 1.6 0.00 0.00 0.00 81 1019.3
20260902125255 26 355 0.0 1.6 0.00 0.00 0.00 82 1019.3
20260902125122 26 355 0.0 1.6 0.00 0.00 0.00 83 1019.2
20260902125029 26 355 0.0 1.6 0.00 0.00 0.00 83 1019.3
20260902124936 26 355 0.0 1.6 0.00 0.00 0.00 82 1019.3
20260902124822 26 355 0.0 1.6 0.00 0.00 0.00 83 1019.4
20260902124757 26 355 0.0 1.6 0.00 0.00 0.00 83 1019.4
20260902124530 25 355 0.0 1.6 0.00 0.00 0.00 84 1019.5
20260902124417 25 355 0.0 0.0 0.00 0.00 0.00 84 1019.3
20260902124324 25 355 0.0 0.0 0.00 0.00 0.00 85 1019.5
20260902124231 25 355 0.0 0.0 0.00 0.00 0.00 85 1019.4
20260902124122 25 355 0.0 0.0 0.00 0.00 0.00 86 1019.4
20260902124029 25 355 0.0 0.0 0.00 0.00 0.00 86 1019.4
20260902123917 25 355 0.0 0.0 0.00 0.00 0.00 87 1019.4
20260902123825 25 355 0.0 0.0 0.00 0.00 0.00 87 1019.5
20260902123751 25 355 0.0 0.0 0.00 0.00 0.00 87 1019.4
20260902123620 25 355 0.0 0.0 0.00 0.00 0.00 87 1019.5
20260902123528 25 355 0.0 0.0 0.00 0.00 0.00 88 1019.5
20260902123455 24 355 0.0 0.0 0.00 0.00 0.00 88 1019.4
20260902123320 24 355 0.0 0.0 0.00 0.00 0.00 88 1019.4
20260902123251 24 355 0.0 0.0 0.00 0.00 0.00 88 1019.4
20260902123044 24 355 0.0 0.0 0.00 0.00 0.00 88 1019.3
20260902122935 24 355 0.0 0.0 0.00 0.00 0.00 88 1019.3
20260902122821 24 355 0.0 1.6 0.00 0.00 0.00 89 1019.3
20260902122728 24 355 0.0 3.2 0.00 0.00 0.00 89 1019.3
20260902122656 24 355 0.0 3.2 0.00 0.00 0.00 89 1019.3
20260902122520 23 355 0.0 3.2 0.00 0.00 0.00 89 1019.3
20260902122428 23 355 0.0 3.2 0.00 0.00 0.00 89 1019.3
20260902122339 23 355 0.0 3.2 0.00 0.00 0.00 89 1019.2
20260902122225 23 355 0.0 3.2 0.00 0.00 0.00 89 1019.3
20260902122130 23 355 0.0 3.2 0.00 0.00 0.00 89 1019.3
20260902122018 23 355 1.6 3.2 0.00 0.00 0.00 89 1019.2
20260902121925 23 355 1.6 3.2 0.00 0.00 0.00 90 1019.2
20260902121832 23 355 1.6 3.2 0.00 0.00 0.00 90 1019.2
20260902121807 23 355 0.0 3.2 0.00 0.00 0.00 90 1019.2
20260902121519 23 355 1.6 3.2 0.00 0.00 0.00 90 1019.3
20260902121426 23 355 1.6 3.2 0.00 0.00 0.00 90 1019.2
20260902121333 23 355 1.6 3.2 0.00 0.00 0.00 90 1019.1
20260902121219 23 355 1.6 3.2 0.00 0.00 0.00 90 1019.2
20260902121130 23 355 1.6 3.2 0.00 0.00 0.00 90 1019.1
20260902121017 23 355 1.6 3.2 0.00 0.00 0.00 90 1019.2
20260902120925 23 355 1.6 3.2 0.00 0.00 0.00 90 1019.2
20260902120833 23 355 1.6 3.2 0.00 0.00 0.00 90 1019.1
20260902120719 23 355 1.6 3.2 0.00 0.00 0.00 90 1019.1
20260902120630 23 355 1.6 3.2 0.00 0.00 0.00 90 1019.2
20260902120518 22 355 1.6 3.2 0.00 0.00 0.00 91 1019.2
20260902120427 22 355 1.6 3.2 0.00 0.00 0.00 90 1019.1
20260902120305 22 355 1.6 3.2 0.00 0.00 0.00 90 1019.0
20260902120022 22 355 1.6 3.2 0.00 0.00 0.00 91 1019.0
20260902115949 22 355 1.6 3.2 0.00 0.00 0.00 90 1018.9
20260902115834 22 355 1.6 3.2 0.00 0.00 0.00 90 1018.9
20260902115721 22 355 3.2 3.2 0.00 0.00 0.00 91 1018.9
20260902115630 22 355 3.2 3.2 0.00 0.00 0.00 91 1018.9
20260902115521 22 355 1.6 3.2 0.00 0.00 0.00 90 1018.8
20260902115448 22 355 1.6 3.2 0.00 0.00 0.00 90 1018.9
20260902115333 22 355 1.6 3.2 0.00 0.00 0.00 90 1018.9
20260902115218 22 355 0.0 3.2 0.00 0.00 0.00 90 1018.9
20260902115125 22 355 0.0 3.2 0.00 0.00 0.00 90 1018.8
20260902115032 22 355 0.0 3.2 0.00 0.00 0.00 90 1018.8
20260902114921 22 355 0.0 3.2 0.00 0.00 0.00 90 1018.8
20260902114827 22 355 1.6 3.2 0.00 0.00 0.00 90 1018.7
20260902114758 22 355 1.6 3.2 0.00 0.00 0.00 90 1018.7
20260902114530 22 355 1.6 3.2 0.00 0.00 0.00 91 1018.7
20260902114416 22 355 1.6 3.2 0.00 0.00 0.00 91 1018.7
20260902114327 22 355 1.6 3.2 0.00 0.00 0.00 91 1018.7
20260902114256 22 355 1.6 3.2 0.00 0.00 0.00 91 1018.6
20260902114120 22 355 1.6 4.8 0.00 0.00 0.00 91 1018.7
20260902114028 22 355 3.2 4.8 0.00 0.00 0.00 91 1018.7
20260902113935 22 355 3.2 4.8 0.00 0.00 0.00 91 1018.6
20260902113843 22 355 3.2 4.8 0.00 0.00 0.00 91 1018.6
20260902113731 22 355 3.2 4.8 0.00 0.00 0.00 90 1018.6
20260902113617 22 355 3.2 4.8 0.00 0.00 0.00 90 1018.6
20260902113524 22 355 3.2 4.8 0.00 0.00 0.00 90 1018.5
20260902113431 22 355 1.6 4.8 0.00 0.00 0.00 90 1018.5
20260902113318 22 355 0.0 3.2 0.00 0.00 0.00 90 1018.5
20260902113252 22 355 0.0 3.2 0.00 0.00 0.00 90 1018.5
20260902113025 22 355 0.0 0.0 0.00 0.00 0.00 91 1018.6
20260902112931 22 355 0.0 0.0 0.00 0.00 0.00 91 1018.6
20260902112836 22 355 0.0 1.6 0.00 0.00 0.00 91 1018.6
20260902112721 22 355 0.0 3.2 0.00 0.00 0.00 91 1018.6
20260902112628 22 355 0.0 3.2 0.00 0.00 0.00 91 1018.6
20260902112520 22 355 0.0 3.2 0.00 0.00 0.00 91 1018.6
20260902112426 22 355 0.0 3.2 0.00 0.00 0.00 91 1018.6
20260902112334 22 355 0.0 3.2 0.00 0.00 0.00 91 1018.6
20260902112220 22 355 0.0 3.2 0.00 0.00 0.00 91 1018.7
20260902112127 22 355 0.0 3.2 0.00 0.00 0.00 91 1018.6
20260902112017 22 355 1.6 3.2 0.00 0.00 0.00 91 1018.6
20260902111924 22 355 1.6 3.2 0.00 0.00 0.00 91 1018.5
20260902111832 22 355 1.6 3.2 0.00 0.00 0.00 91 1018.4
20260902111801 22 355 1.6 3.2 0.00 0.00 0.00 91 1018.4
20260902111517 22 355 1.6 3.2 0.00 0.00 0.00 91 1018.4
20260902111424 22 355 1.6 3.2 0.00 0.00 0.00 91 1018.5
20260902111330 22 355 1.6 3.2 0.00 0.00 0.00 91 1018.5
20260902111219 22 355 1.6 3.2 0.00 0.00 0.00 91 1018.5
20260902111146 22 355 1.6 3.2 0.00 0.00 0.00 91 1018.4
20260902111033 22 355 1.6 3.2 0.00 0.00 0.00 91 1018.5
20260902110940 22 355 1.6 3.2 0.00 0.00 0.00 91 1018.4
20260902110830 22 355 1.6 3.2 0.00 0.00 0.00 91 1018.4
20260902110736 22 355 1.6 4.8 0.00 0.00 0.00 91 1018.5
20260902110621 22 355 1.6 4.8 0.00 0.00 0.00 90 1018.5
20260902110529 22 355 1.6 4.8 0.00 0.00 0.00 90 1018.4
20260902110417 22 355 1.6 4.8 0.00 0.00 0.00 91 1018.4
20260902110343 22 355 1.6 4.8 0.00 0.00 0.00 91 1018.5
20260902110317 22 355 1.6 4.8 0.00 0.00 0.00 91 1018.5
20260902110029 22 355 3.2 4.8 0.00 0.00 0.00 91 1018.4
20260902105936 22 355 3.2 4.8 0.00 0.00 0.00 91 1018.5
20260902105822 22 355 3.2 4.8 0.00 0.00 0.00 91 1018.3
20260902105730 22 355 3.2 4.8 0.00 0.00 0.00 91 1018.4
20260902105621 22 355 3.2 4.8 0.00 0.00 0.00 91 1018.4
20260902105530 22 355 3.2 4.8 0.00 0.00 0.00 91 1018.4
20260902105436 22 355 3.2 4.8 0.00 0.00 0.00 90 1018.4
20260902105323 22 355 3.2 4.8 0.00 0.00 0.00 90 1018.5
20260902105229 22 355 3.2 4.8 0.00 0.00 0.00 90 1018.4
20260902105119 22 355 3.2 3.2 0.00 0.00 0.00 90 1018.4
20260902105026 22 355 1.6 3.2 0.00 0.00 0.00 90 1018.4
20260902104953 22 355 1.6 4.8 0.00 0.00 0.00 90 1018.4
20260902104809 22 355 1.6 4.8 0.00 0.00 0.00 90 1018.2
20260902104527 22 355 3.2 4.8 0.00 0.00 0.00 90 1018.3
20260902104435 22 355 3.2 4.8 0.00 0.00 0.00 90 1018.3
20260902104323 22 355 3.2 4.8 0.00 0.00 0.00 90 1018.3
20260902104229 22 355 3.2 4.8 0.00 0.00 0.00 90 1018.2
20260902104117 22 355 3.2 4.8 0.00 0.00 0.00 90 1018.3
20260902104025 22 355 3.2 4.8 0.00 0.00 0.00 90 1018.3
20260902103936 22 355 3.2 4.8 0.00 0.00 0.00 90 1018.3
20260902103822 22 355 3.2 4.8 0.00 0.00 0.00 90 1018.3
20260902103729 22 355 1.6 4.8 0.00 0.00 0.00 89 1018.3
20260902103616 22 355 0.0 0.0 0.00 0.00 0.00 90 1018.3
20260902103523 22 355 0.0 0.0 0.00 0.00 0.00 90 1018.2
20260902103434 22 355 0.0 0.0 0.00 0.00 0.00 90 1018.2
20260902103340 22 355 0.0 0.0 0.00 0.00 0.00 89 1018.2
20260902103310 22 355 0.0 0.0 0.00 0.00 0.00 89 1018.2
20260902103022 22 355 0.0 0.0 0.00 0.00 0.00 90 1018.2
20260902102928 22 355 0.0 0.0 0.00 0.00 0.00 90 1018.1
20260902102818 22 355 0.0 0.0 0.00 0.00 0.00 90 1018.1
20260902102724 22 355 0.0 0.0 0.00 0.00 0.00 90 1018.1
20260902102651 22 355 0.0 0.0 0.00 0.00 0.00 90 1018.1
20260902102557 22 355 0.0 0.0 0.00 0.00 0.00 90 1018.1
20260902102442 22 355 0.0 0.0 0.00 0.00 0.00 90 1018.0
20260902102327 22 355 0.0 0.0 0.00 0.00 0.00 90 1018.1
20260902102217 22 355 0.0 0.0 0.00 0.00 0.00 90 1018.0
20260902102124 22 355 0.0 0.0 0.00 0.00 0.00 90 1018.1
20260902102031 22 355 0.0 0.0 0.00 0.00 0.00 90 1018.0
20260902101919 22 355 0.0 0.0 0.00 0.00 0.00 90 1018.1
20260902101801 22 355 0.0 0.0 0.00 0.00 0.00 90 1018.0
20260902101535 22 355 0.0 0.0 0.00 0.00 0.00 90 1018.0
20260902101423 22 355 0.0 0.0 0.00 0.00 0.00 90 1018.1
20260902101331 22 355 0.0 0.0 0.00 0.00 0.00 90 1018.1
20260902101217 22 355 0.0 0.0 0.00 0.00 0.00 89 1018.1
20260902101128 22 355 0.0 0.0 0.00 0.00 0.00 89 1018.1
20260902101036 22 355 0.0 0.0 0.00 0.00 0.00 89 1018.1
20260902100923 22 355 0.0 0.0 0.00 0.00 0.00 89 1018.0
20260902100830 22 355 0.0 0.0 0.00 0.00 0.00 89 1018.1
20260902100717 22 355 0.0 0.0 0.00 0.00 0.00 90 1018.0
20260902100624 22 355 0.0 0.0 0.00 0.00 0.00 90 1018.1
20260902100516 22 355 0.0 0.0 0.00 0.00 0.00 90 1018.1
20260902100445 22 355 0.0 0.0 0.00 0.00 0.00 90 1018.0
20260902100351 22 355 0.0 0.0 0.00 0.00 0.00 90 1018.1
20260902100300 22 355 0.0 0.0 0.00 0.00 0.00 90 1018.1
20260902100053 22 355 0.0 0.0 0.00 0.00 0.00 90 1018.0
20260902095923 22 355 0.0 0.0 0.00 0.00 0.00 90 1018.0
20260902095830 22 355 0.0 0.0 0.00 0.00 0.00 90 1018.0
20260902095717 22 355 0.0 0.0 0.00 0.00 0.00 89 1018.0
20260902095624 22 355 0.0 0.0 0.00 0.00 0.00 89 1018.0
20260902095531 22 355 0.0 0.0 0.00 0.00 0.00 89 1018.1
20260902095418 22 355 0.0 0.0 0.00 0.00 0.00 90 1018.0
20260902095328 22 355 0.0 0.0 0.00 0.00 0.00 90 1018.0
20260902095236 22 355 0.0 0.0 0.00 0.00 0.00 90 1018.0
20260902095122 22 355 0.0 0.0 0.00 0.00 0.00 90 1017.9
20260902095030 22 355 0.0 0.0 0.00 0.00 0.00 90 1018.0
20260902094918 22 355 0.0 0.0 0.00 0.00 0.00 90 1018.0
20260902094828 22 355 0.0 0.0 0.00 0.00 0.00 90 1017.9
20260902094800 22 355 0.0 0.0 0.00 0.00 0.00 90 1017.9
20260902094533 22 355 0.0 0.0 0.00 0.00 0.00 89 1017.9
20260902094420 22 355 0.0 0.0 0.00 0.00 0.00 89 1017.8
20260902094347 22 355 0.0 0.0 0.00 0.00 0.00 89 1017.9
20260902094253 22 355 0.0 0.0 0.00 0.00 0.00 89 1017.8
20260902094143 22 355 0.0 0.0 0.00 0.00 0.00 89 1017.8
20260902094028 22 355 0.0 0.0 0.00 0.00 0.00 89 1017.8
20260902093935 22 355 0.0 0.0 0.00 0.00 0.00 89 1017.8
20260902093823 22 355 0.0 0.0 0.00 0.00 0.00 89 1017.9
20260902093730 22 355 0.0 0.0 0.00 0.00 0.00 89 1017.8
20260902093637 23 355 0.0 1.6 0.00 0.00 0.00 89 1017.9
20260902093527 23 355 0.0 1.6 0.00 0.00 0.00 89 1017.8
20260902093453 23 355 0.0 1.6 0.00 0.00 0.00 89 1017.9
20260902093319 23 355 0.0 3.2 0.00 0.00 0.00 90 1017.9
20260902093251 23 355 0.0 3.2 0.00 0.00 0.00 90 1017.9
20260902093022 23 355 0.0 3.2 0.00 0.00 0.00 90 1017.8
20260902092931 23 355 0.0 3.2 0.00 0.00 0.00 90 1017.9
20260902092816 23 355 0.0 3.2 0.00 0.00 0.00 90 1017.9
20260902092723 23 355 1.6 3.2 0.00 0.00 0.00 90 1017.9
20260902092628 23 355 1.6 3.2 0.00 0.00 0.00 90 1017.8
20260902092535 23 355 1.6 3.2 0.00 0.00 0.00 90 1017.7
20260902092426 23 355 1.6 3.2 0.00 0.00 0.00 90 1017.7
20260902092334 23 355 1.6 3.2 0.00 0.00 0.00 90 1017.8
20260902092219 23 355 1.6 3.2 0.00 0.00 0.00 90 1017.7
20260902092127 23 355 1.6 3.2 0.00 0.00 0.00 90 1017.7
20260902092033 23 355 1.6 3.2 0.00 0.00 0.00 90 1017.7
20260902091920 23 355 1.6 3.2 0.00 0.00 0.00 90 1017.7
20260902091852 23 355 0.0 3.2 0.00 0.00 0.00 90 1017.7
20260902091824 23 355 0.0 1.6 0.00 0.00 0.00 90 1017.7
20260902091518 23 355 0.0 3.2 0.00 0.00 0.00 90 1017.6
20260902091426 23 355 0.0 3.2 0.00 0.00 0.00 90 1017.6
20260902091352 23 355 0.0 3.2 0.00 0.00 0.00 90 1017.6
20260902091222 23 355 1.6 3.2 0.00 0.00 0.00 89 1017.6
20260902091129 23 355 1.6 3.2 0.00 0.00 0.00 89 1017.6
20260902091017 23 355 1.6 3.2 0.00 0.00 0.00 89 1017.6
20260902090923 23 355 1.6 3.2 0.00 0.00 0.00 89 1017.6
20260902090851 23 355 1.6 3.2 0.00 0.00 0.00 89 1017.5
20260902090717 23 355 1.6 3.2 0.00 0.00 0.00 88 1017.5
20260902090628 23 355 1.6 3.2 0.00 0.00 0.00 88 1017.6
20260902090555 23 355 1.6 3.2 0.00 0.00 0.00 88 1017.6
20260902090440 23 355 1.6 3.2 0.00 0.00 0.00 89 1017.5
20260902090345 23 355 1.6 3.2 0.00 0.00 0.00 89 1017.5
20260902090318 23 355 1.6 3.2 0.00 0.00 0.00 89 1017.5
20260902090050 23 355 0.0 3.2 0.00 0.00 0.00 89 1017.6
20260902085920 23 355 0.0 1.6 0.00 0.00 0.00 89 1017.5
20260902085846 23 355 0.0 1.6 0.00 0.00 0.00 89 1017.5
20260902085752 23 355 0.0 1.6 0.00 0.00 0.00 89 1017.5
20260902085617 23 355 0.0 1.6 0.00 0.00 0.00 89 1017.4
20260902085524 23 355 0.0 1.6 0.00 0.00 0.00 89 1017.5
20260902085450 23 355 0.0 1.6 0.00 0.00 0.00 89 1017.5
20260902085318 23 355 0.0 1.6 0.00 0.00 0.00 89 1017.4
20260902085230 23 355 0.0 1.6 0.00 0.00 0.00 89 1017.4
20260902085117 23 355 0.0 3.2 0.00 0.00 0.00 90 1017.5
20260902085024 23 355 0.0 3.2 0.00 0.00 0.00 90 1017.4
20260902084930 23 355 0.0 3.2 0.00 0.00 0.00 89 1017.5
20260902084816 23 355 0.0 3.2 0.00 0.00 0.00 89 1017.5
20260902084751 23 355 0.0 3.2 0.00 0.00 0.00 89 1017.5
20260902084523 23 355 0.0 3.2 0.00 0.00 0.00 89 1017.5
20260902084430 23 355 1.6 3.2 0.00 0.00 0.00 89 1017.4
20260902084336 23 355 1.6 3.2 0.00 0.00 0.00 89 1017.4
20260902084224 23 355 1.6 3.2 0.00 0.00 0.00 89 1017.4
20260902084116 23 355 1.6 4.8 0.00 0.00 0.00 88 1017.4
20260902084022 23 355 1.6 4.8 0.00 0.00 0.00 88 1017.4
20260902083931 23 355 1.6 4.8 0.00 0.00 0.00 88 1017.4
20260902083818 23 355 1.6 4.8 0.00 0.00 0.00 88 1017.3
20260902083726 23 355 1.6 4.8 0.00 0.00 0.00 88 1017.4
20260902083636 23 355 1.6 4.8 0.00 0.00 0.00 87 1017.4
20260902083541 23 355 3.2 4.8 0.00 0.00 0.00 87 1017.4
20260902083428 23 355 3.2 4.8 0.00 0.00 0.00 87 1017.3
20260902083307 23 355 3.2 4.8 0.00 0.00 0.00 87 1017.4
20260902083023 23 355 3.2 4.8 0.00 0.00 0.00 87 1017.2
20260902082930 23 355 3.2 4.8 0.00 0.00 0.00 87 1017.3
20260902082836 23 355 3.2 4.8 0.00 0.00 0.00 87 1017.3
20260902082723 23 355 3.2 4.8 0.00 0.00 0.00 88 1017.3
20260902082630 23 355 3.2 4.8 0.00 0.00 0.00 88 1017.2
20260902082520 23 355 3.2 4.8 0.00 0.00 0.00 88 1017.2
20260902082428 23 355 3.2 3.2 0.00 0.00 0.00 88 1017.2
20260902082334 23 355 3.2 4.8 0.00 0.00 0.00 88 1017.2
20260902082222 23 355 3.2 4.8 0.00 0.00 0.00 88 1017.2
20260902082130 23 355 1.6 4.8 0.00 0.00 0.00 88 1017.3
20260902082017 23 355 1.6 4.8 0.00 0.00 0.00 88 1017.4
20260902081928 23 355 1.6 4.8 0.00 0.00 0.00 88 1017.3
20260902081856 23 355 3.2 4.8 0.00 0.00 0.00 88 1017.3
20260902081806 23 355 3.2 4.8 0.00 0.00 0.00 88 1017.3
20260902081518 23 355 3.2 6.4 0.00 0.00 0.00 89 1017.3
20260902081425 23 5 3.2 6.4 0.00 0.00 0.00 88 1017.3
20260902081316 23 5 4.8 6.4 0.00 0.00 0.00 88 1017.3
20260902081245 23 5 3.2 6.4 0.00 0.00 0.00 88 1017.2
20260902081130 23 5 4.8 6.4 0.00 0.00 0.00 88 1017.2
20260902081018 23 12 4.8 6.4 0.00 0.00 0.00 88 1017.2
20260902080924 23 9 4.8 6.4 0.00 0.00 0.00 88 1017.2
20260902080830 23 12 3.2 6.4 0.00 0.00 0.00 88 1017.2
20260902080721 23 15 3.2 4.8 0.00 0.00 0.00 88 1017.2
20260902080628 23 5 3.2 4.8 0.00 0.00 0.00 88 1017.2
20260902080534 23 355 3.2 4.8 0.00 0.00 0.00 88 1017.2
20260902080422 23 355 3.2 4.8 0.00 0.00 0.00 88 1017.2
20260902080330 23 355 3.2 4.8 0.00 0.00 0.00 88 1017.2
20260902080305 23 355 3.2 6.4 0.00 0.00 0.00 88 1017.2
20260902080017 23 355 1.6 6.4 0.00 0.00 0.00 88 1017.1
20260902075926 23 355 3.2 6.4 0.00 0.00 0.00 88 1017.1
20260902075833 23 355 3.2 6.4 0.00 0.00 0.00 88 1017.2
20260902075740 23 355 3.2 6.4 0.00 0.00 0.00 88 1017.1
20260902075646 23 355 3.2 6.4 0.00 0.00 0.00 88 1017.2
20260902075556 23 355 3.2 6.4 0.00 0.00 0.00 88 1017.2
20260902075422 23 355 4.8 6.4 0.00 0.00 0.00 88 1017.2
20260902075328 23 5 4.8 6.4 0.00 0.00 0.00 88 1017.1
20260902075216 23 355 4.8 6.4 0.00 0.00 0.00 88 1017.1
20260902075144 23 14 4.8 6.4 0.00 0.00 0.00 88 1017.1
20260902075031 23 29 4.8 6.4 0.00 0.00 0.00 87 1017.2
20260902074921 23 9 3.2 4.8 0.00 0.00 0.00 87 1017.1
20260902074827 23 26 0.0 3.2 0.00 0.00 0.00 87 1017.0
20260902074757 23 26 0.0 3.2 0.00 0.00 0.00 87 1017.0
20260902074530 23 308 0.0 0.0 0.00 0.00 0.00 88 1017.0
20260902074416 23 286 0.0 0.0 0.00 0.00 0.00 88 1017.0
20260902074328 23 286 0.0 0.0 0.00 0.00 0.00 88 1017.0
20260902074234 23 286 0.0 0.0 0.00 0.00 0.00 88 1017.0
20260902074122 23 286 0.0 0.0 0.00 0.00 0.00 88 1017.0
20260902074028 23 286 0.0 0.0 0.00 0.00 0.00 88 1017.0
20260902073934 23 286 0.0 0.0 0.00 0.00 0.00 88 1016.9
20260902073842 23 286 0.0 0.0 0.00 0.00 0.00 88 1016.9
20260902073732 23 284 0.0 0.0 0.00 0.00 0.00 88 1016.9
20260902073619 23 283 0.0 0.0 0.00 0.00 0.00 88 1017.0
20260902073527 23 288 0.0 0.0 0.00 0.00 0.00 88 1016.9
20260902073435 23 273 0.0 0.0 0.00 0.00 0.00 88 1016.9
20260902073342 23 350 0.0 0.0 0.00 0.00 0.00 88 1016.8
20260902073255 23 350 0.0 0.0 0.00 0.00 0.00 88 1016.8
20260902073049 23 350 0.0 0.0 0.00 0.00 0.00 88 1016.8
20260902072935 23 350 0.0 0.0 0.00 0.00 0.00 88 1016.8
20260902072843 23 350 0.0 0.0 0.00 0.00 0.00 88 1016.9
20260902072750 23 350 0.0 0.0 0.00 0.00 0.00 88 1016.9
20260902072636 23 350 0.0 0.0 0.00 0.00 0.00 88 1016.9
20260902072522 23 350 0.0 0.0 0.00 0.00 0.00 88 1016.8
20260902072432 23 350 0.0 0.0 0.00 0.00 0.00 88 1017.0
20260902072318 23 350 0.0 0.0 0.00 0.00 0.00 88 1017.0
20260902072226 23 350 0.0 0.0 0.00 0.00 0.00 88 1016.9
20260902072132 23 350 0.0 0.0 0.00 0.00 0.00 88 1017.0
20260902072019 24 350 0.0 0.0 0.00 0.00 0.00 88 1017.0
20260902071931 24 350 0.0 0.0 0.00 0.00 0.00 88 1016.9
20260902071819 24 350 0.0 0.0 0.00 0.00 0.00 88 1016.9
20260902071750 23 350 0.0 0.0 0.00 0.00 0.00 88 1016.9
20260902071523 23 349 0.0 0.0 0.00 0.00 0.00 88 1016.9
20260902071429 23 350 0.0 0.0 0.00 0.00 0.00 88 1017.0
20260902071321 23 350 0.0 0.0 0.00 0.00 0.00 87 1017.0
20260902071228 23 349 0.0 0.0 0.00 0.00 0.00 87 1017.0
20260902071135 23 350 0.0 0.0 0.00 0.00 0.00 87 1017.0
20260902071043 23 350 0.0 0.0 0.00 0.00 0.00 87 1017.1
20260902070928 23 350 0.0 0.0 0.00 0.00 0.00 87 1017.1
20260902070821 23 350 0.0 0.0 0.00 0.00 0.00 86 1017.1
20260902070728 23 350 0.0 0.0 0.00 0.00 0.00 86 1017.1
20260902070635 23 350 0.0 0.0 0.00 0.00 0.00 86 1017.0
20260902070522 24 349 0.0 0.0 0.00 0.00 0.00 87 1017.1
20260902070429 24 350 0.0 0.0 0.00 0.00 0.00 87 1017.1
20260902070316 24 350 0.0 0.0 0.00 0.00 0.00 87 1017.2
20260902070251 24 350 0.0 0.0 0.00 0.00 0.00 87 1017.2
20260902070023 24 350 0.0 0.0 0.00 0.00 0.00 87 1017.1
20260902065928 24 350 0.0 0.0 0.00 0.00 0.00 87 1017.2
20260902065857 24 350 0.0 0.0 0.00 0.00 0.00 87 1017.2
20260902065742 24 350 0.0 0.0 0.00 0.00 0.00 87 1017.1
20260902065633 24 350 0.0 0.0 0.00 0.00 0.00 87 1017.2
20260902065520 24 325 0.0 0.0 0.00 0.00 0.00 86 1017.1
20260902065425 24 325 0.0 0.0 0.00 0.00 0.00 86 1017.1
20260902065333 24 325 0.0 0.0 0.00 0.00 0.00 86 1017.1
20260902065220 24 325 0.0 0.0 0.00 0.00 0.00 85 1017.2
20260902065128 24 325 0.0 0.0 0.00 0.00 0.00 85 1017.2
20260902065018 24 325 0.0 0.0 0.00 0.00 0.00 85 1017.2
20260902064924 24 325 0.0 0.0 0.00 0.00 0.00 85 1017.2
20260902064803 24 325 0.0 0.0 0.00 0.00 0.00 85 1017.2
20260902064521 24 325 0.0 0.0 0.00 0.00 0.00 85 1017.2
20260902064427 24 325 0.0 0.0 0.00 0.00 0.00 85 1017.3
20260902064334 24 325 0.0 0.0 0.00 0.00 0.00 85 1017.3
20260902064221 24 325 0.0 0.0 0.00 0.00 0.00 86 1017.3
20260902064127 24 325 0.0 0.0 0.00 0.00 0.00 86 1017.3
20260902064054 24 325 0.0 0.0 0.00 0.00 0.00 86 1017.4
20260902063924 24 325 0.0 0.0 0.00 0.00 0.00 86 1017.3
20260902063851 24 325 0.0 0.0 0.00 0.00 0.00 86 1017.4
20260902063717 24 325 0.0 0.0 0.00 0.00 0.00 86 1017.4
20260902063625 24 325 0.0 0.0 0.00 0.00 0.00 86 1017.4
20260902063531 24 325 0.0 0.0 0.00 0.00 0.00 86 1017.4
20260902063438 24 325 0.0 0.0 0.00 0.00 0.00 86 1017.4
20260902063326 24 325 0.0 0.0 0.00 0.00 0.00 86 1017.3
20260902063256 24 325 0.0 0.0 0.00 0.00 0.00 86 1017.3
20260902063030 24 325 0.0 0.0 0.00 0.00 0.00 86 1017.4
20260902062917 24 325 0.0 0.0 0.00 0.00 0.00 86 1017.4
20260902062823 24 325 0.0 0.0 0.00 0.00 0.00 86 1017.5
20260902062735 24 325 0.0 0.0 0.00 0.00 0.00 86 1017.4
20260902062622 25 325 0.0 0.0 0.00 0.00 0.00 86 1017.4
20260902062529 25 325 0.0 0.0 0.00 0.00 0.00 86 1017.5
20260902062416 24 325 0.0 0.0 0.00 0.00 0.00 86 1017.5
20260902062324 25 325 0.0 0.0 0.00 0.00 0.00 86 1017.4
20260902062234 25 325 0.0 0.0 0.00 0.00 0.00 86 1017.4
20260902062121 25 325 0.0 0.0 0.00 0.00 0.00 86 1017.4
20260902062048 25 325 0.0 0.0 0.00 0.00 0.00 86 1017.5
20260902061935 25 325 0.0 0.0 0.00 0.00 0.00 86 1017.5
20260902061822 25 325 0.0 0.0 0.00 0.00 0.00 86 1017.5
20260902061755 25 325 0.0 0.0 0.00 0.00 0.00 86 1017.5
20260902061549 25 325 0.0 0.0 0.00 0.00 0.00 86 1017.5
20260902061455 25 325 0.0 0.0 0.00 0.00 0.00 86 1017.5
20260902061400 25 325 0.0 0.0 0.00 0.00 0.00 86 1017.5
20260902061225 25 325 0.0 0.0 0.00 0.00 0.00 85 1017.6
20260902061150 25 325 0.0 0.0 0.00 0.00 0.00 85 1017.6
20260902061016 25 325 0.0 0.0 0.00 0.00 0.00 85 1017.5
20260902060924 25 325 0.0 0.0 0.00 0.00 0.00 85 1017.5
20260902060835 25 325 0.0 0.0 0.00 0.00 0.00 85 1017.5
20260902060722 25 325 0.0 0.0 0.00 0.00 0.00 84 1017.5
20260902060629 25 325 0.0 0.0 0.00 0.00 0.00 83 1017.5
20260902060535 25 325 0.0 0.0 0.00 0.00 0.00 83 1017.5
20260902060422 25 325 0.0 0.0 0.00 0.00 0.00 83 1017.5
20260902060303 25 325 0.0 0.0 0.00 0.00 0.00 83 1017.5
20260902060036 25 325 0.0 0.0 0.00 0.00 0.00 83 1017.5
20260902055922 25 325 0.0 0.0 0.00 0.00 0.00 83 1017.5
20260902055829 25 325 0.0 0.0 0.00 0.00 0.00 82 1017.5
20260902055739 25 325 0.0 0.0 0.00 0.00 0.00 82 1017.5
20260902055624 25 325 0.0 0.0 0.00 0.00 0.00 82 1017.6
20260902055532 25 325 0.0 0.0 0.00 0.00 0.00 82 1017.6
20260902055416 25 325 0.0 0.0 0.00 0.00 0.00 82 1017.6
20260902055323 25 325 0.0 0.0 0.00 0.00 0.00 82 1017.5
20260902055229 25 325 0.0 0.0 0.00 0.00 0.00 82 1017.7
20260902055120 25 325 0.0 0.0 0.00 0.00 0.00 82 1017.5
20260902055028 25 325 0.0 0.0 0.00 0.00 0.00 82 1017.6
20260902054936 25 325 0.0 0.0 0.00 0.00 0.00 81 1017.6
20260902054824 25 325 0.0 0.0 0.00 0.00 0.00 81 1017.6
20260902054758 25 325 0.0 0.0 0.00 0.00 0.00 81 1017.6
20260902054531 25 325 0.0 0.0 0.00 0.00 0.00 82 1017.6
20260902054417 25 325 0.0 0.0 0.00 0.00 0.00 83 1017.6
20260902054325 25 325 0.0 0.0 0.00 0.00 0.00 82 1017.5
20260902054234 25 325 0.0 0.0 0.00 0.00 0.00 82 1017.6
20260902054122 25 325 0.0 0.0 0.00 0.00 0.00 82 1017.6
20260902054032 25 325 0.0 0.0 0.00 0.00 0.00 82 1017.6
20260902053939 25 325 0.0 0.0 0.00 0.00 0.00 82 1017.6
20260902053825 25 325 0.0 0.0 0.00 0.00 0.00 82 1017.6
20260902053732 25 325 0.0 0.0 0.00 0.00 0.00 83 1017.6
20260902053619 25 325 0.0 0.0 0.00 0.00 0.00 83 1017.5
20260902053526 25 325 0.0 0.0 0.00 0.00 0.00 83 1017.6
20260902053416 25 325 0.0 0.0 0.00 0.00 0.00 83 1017.6
20260902053324 25 325 0.0 0.0 0.00 0.00 0.00 83 1017.6
20260902053255 25 325 0.0 0.0 0.00 0.00 0.00 83 1017.6
20260902053027 25 325 0.0 0.0 0.00 0.00 0.00 83 1017.7
20260902052940 25 325 0.0 0.0 0.00 0.00 0.00 83 1017.7
20260902052826 25 325 0.0 0.0 0.00 0.00 0.00 83 1017.7
20260902052732 25 325 0.0 0.0 0.00 0.00 0.00 83 1017.8
20260902052619 25 325 0.0 0.0 0.00 0.00 0.00 82 1017.9
20260902052527 25 325 0.0 0.0 0.00 0.00 0.00 82 1017.8
20260902052435 25 325 0.0 0.0 0.00 0.00 0.00 82 1017.8
20260902052327 25 325 0.0 0.0 0.00 0.00 0.00 82 1017.8
20260902052233 25 325 0.0 0.0 0.00 0.00 0.00 82 1017.6
20260902052120 25 325 0.0 0.0 0.00 0.00 0.00 81 1017.8
20260902052026 25 325 0.0 1.6 0.00 0.00 0.00 81 1017.8
20260902051932 25 325 0.0 1.6 0.00 0.00 0.00 81 1017.7
20260902051840 25 325 0.0 1.6 0.00 0.00 0.00 81 1017.7
20260902051753 25 325 0.0 1.6 0.00 0.00 0.00 81 1017.7
20260902051525 25 325 0.0 1.6 0.00 0.00 0.00 81 1017.7
20260902051433 25 325 0.0 1.6 0.00 0.00 0.00 81 1017.7
20260902051320 25 325 0.0 1.6 0.00 0.00 0.00 81 1017.7
20260902051228 25 325 0.0 1.6 0.00 0.00 0.00 82 1017.6
20260902051119 25 325 0.0 1.6 0.00 0.00 0.00 82 1017.6
20260902051025 25 325 0.0 1.6 0.00 0.00 0.00 82 1017.6
20260902050931 25 325 0.0 1.6 0.00 0.00 0.00 82 1017.6
20260902050838 25 325 0.0 1.6 0.00 0.00 0.00 82 1017.6
20260902050722 25 325 0.0 1.6 0.00 0.00 0.00 83 1017.7
20260902050629 25 325 0.0 1.6 0.00 0.00 0.00 83 1017.6
20260902050539 25 325 0.0 0.0 0.00 0.00 0.00 83 1017.7
20260902050425 25 325 0.0 0.0 0.00 0.00 0.00 83 1017.6
20260902050352 25 325 0.0 0.0 0.00 0.00 0.00 84 1017.6
20260902050301 25 325 0.0 0.0 0.00 0.00 0.00 84 1017.6
20260902050034 25 325 0.0 0.0 0.00 0.00 0.00 84 1017.7
20260902045926 25 325 0.0 0.0 0.00 0.00 0.00 84 1017.7
20260902045832 25 325 0.0 0.0 0.00 0.00 0.00 83 1017.7
20260902045718 25 325 0.0 0.0 0.00 0.00 0.00 83 1017.6
20260902045625 25 325 0.0 0.0 0.00 0.00 0.00 83 1017.7
20260902045530 25 325 0.0 0.0 0.00 0.00 0.00 83 1017.6
20260902045420 25 325 0.0 1.6 0.00 0.00 0.00 83 1017.6
20260902045328 25 325 0.0 1.6 0.00 0.00 0.00 83 1017.7
20260902045234 25 325 0.0 3.2 0.00 0.00 0.00 83 1017.5
20260902045141 25 325 0.0 3.2 0.00 0.00 0.00 83 1017.6
20260902045026 25 325 0.0 3.2 0.00 0.00 0.00 82 1017.6
20260902044933 25 325 0.0 3.2 0.00 0.00 0.00 82 1017.7
20260902044822 25 325 0.0 3.2 0.00 0.00 0.00 82 1017.6
20260902044753 25 325 0.0 3.2 0.00 0.00 0.00 81 1017.6
20260902044524 25 325 1.6 3.2 0.00 0.00 0.00 81 1017.7
20260902044432 25 325 1.6 3.2 0.00 0.00 0.00 81 1017.7
20260902044320 25 325 1.6 3.2 0.00 0.00 0.00 81 1017.6
20260902044230 25 325 1.6 3.2 0.00 0.00 0.00 81 1017.7
20260902044116 25 325 1.6 3.2 0.00 0.00 0.00 81 1017.6
20260902044024 25 325 1.6 3.2 0.00 0.00 0.00 81 1017.7
20260902043931 25 325 1.6 3.2 0.00 0.00 0.00 82 1017.7
20260902043817 25 325 1.6 3.2 0.00 0.00 0.00 82 1017.6
20260902043728 25 325 1.6 3.2 0.00 0.00 0.00 82 1017.7
20260902043634 26 325 1.6 3.2 0.00 0.00 0.00 83 1017.7
20260902043521 26 325 3.2 3.2 0.00 0.00 0.00 83 1017.7
20260902043449 26 325 1.6 3.2 0.00 0.00 0.00 83 1017.7
20260902043354 26 325 1.6 3.2 0.00 0.00 0.00 83 1017.7
20260902043324 26 325 0.0 3.2 0.00 0.00 0.00 84 1017.7
20260902043020 26 325 0.0 0.0 0.00 0.00 0.00 84 1017.7
20260902042947 26 325 0.0 0.0 0.00 0.00 0.00 84 1017.7
20260902042834 26 325 0.0 1.6 0.00 0.00 0.00 84 1017.7
20260902042722 26 325 0.0 1.6 0.00 0.00 0.00 83 1017.6
20260902042628 26 325 0.0 1.6 0.00 0.00 0.00 83 1017.8
20260902042519 26 325 0.0 1.6 0.00 0.00 0.00 83 1017.7
20260902042425 26 325 0.0 3.2 0.00 0.00 0.00 83 1017.7
20260902042353 26 325 0.0 3.2 0.00 0.00 0.00 83 1017.7
20260902042239 26 325 0.0 3.2 0.00 0.00 0.00 83 1017.8
20260902042125 26 325 0.0 3.2 0.00 0.00 0.00 83 1017.7
20260902042034 26 325 0.0 3.2 0.00 0.00 0.00 83 1017.8
20260902041920 26 325 0.0 3.2 0.00 0.00 0.00 83 1017.7
20260902041830 26 325 1.6 3.2 0.00 0.00 0.00 83 1017.7
20260902041800 26 325 1.6 3.2 0.00 0.00 0.00 83 1017.7
20260902041554 26 325 1.6 3.2 0.00 0.00 0.00 82 1017.8
20260902041421 26 325 1.6 3.2 0.00 0.00 0.00 83 1017.7
20260902041328 26 325 1.6 3.2 0.00 0.00 0.00 83 1017.8
20260902041221 26 325 1.6 1.6 0.00 0.00 0.00 83 1017.8
20260902041128 26 325 1.6 1.6 0.00 0.00 0.00 83 1017.8
20260902041035 26 325 0.0 1.6 0.00 0.00 0.00 83 1017.8
20260902040923 26 325 0.0 1.6 0.00 0.00 0.00 84 1017.8
20260902040829 26 325 0.0 1.6 0.00 0.00 0.00 84 1017.9
20260902040719 26 325 0.0 1.6 0.00 0.00 0.00 83 1017.9
20260902040626 26 325 0.0 1.6 0.00 0.00 0.00 83 1017.8
20260902040532 26 325 0.0 1.6 0.00 0.00 0.00 83 1017.8
20260902040418 26 325 0.0 3.2 0.00 0.00 0.00 83 1017.8
20260902040326 26 325 0.0 3.2 0.00 0.00 0.00 83 1017.8
20260902040300 26 325 0.0 3.2 0.00 0.00 0.00 83 1017.8
20260902040032 26 325 0.0 3.2 0.00 0.00 0.00 83 1017.8
20260902035938 26 325 0.0 3.2 0.00 0.00 0.00 83 1017.8
20260902035826 26 325 1.6 3.2 0.00 0.00 0.00 83 1017.7
20260902035733 26 325 1.6 3.2 0.00 0.00 0.00 83 1017.8
20260902035623 26 325 1.6 4.8 0.00 0.00 0.00 83 1017.8
20260902035530 26 325 1.6 4.8 0.00 0.00 0.00 82 1017.9
20260902035435 26 325 3.2 4.8 0.00 0.00 0.00 82 1017.9
20260902035320 26 325 3.2 4.8 0.00 0.00 0.00 80 1017.8
20260902035228 26 338 1.6 4.8 0.00 0.00 0.00 81 1017.9
20260902035135 26 345 1.6 4.8 0.00 0.00 0.00 81 1017.8
20260902035027 26 345 3.2 4.8 0.00 0.00 0.00 81 1017.8
20260902034934 26 345 3.2 4.8 0.00 0.00 0.00 81 1017.8
20260902034822 26 347 3.2 3.2 0.00 0.00 0.00 81 1017.7
20260902034752 26 347 1.6 3.2 0.00 0.00 0.00 81 1017.7
20260902034530 26 340 1.6 3.2 0.00 0.00 0.00 80 1017.7
20260902034416 26 340 3.2 3.2 0.00 0.00 0.00 81 1017.7
20260902034322 26 340 1.6 3.2 0.00 0.00 0.00 80 1017.7
20260902034231 26 340 1.6 4.8 0.00 0.00 0.00 80 1017.7
20260902034118 26 340 0.0 4.8 0.00 0.00 0.00 79 1017.7
20260902034025 26 340 0.0 4.8 0.00 0.00 0.00 79 1017.6
20260902033936 26 340 1.6 4.8 0.00 0.00 0.00 79 1017.7
20260902033821 26 340 1.6 4.8 0.00 0.00 0.00 79 1017.7
20260902033749 26 340 1.6 4.8 0.00 0.00 0.00 79 1017.8
20260902033656 26 340 1.6 4.8 0.00 0.00 0.00 78 1017.7
20260902033522 26 340 3.2 4.8 0.00 0.00 0.00 78 1017.6
20260902033448 26 340 1.6 4.8 0.00 0.00 0.00 78 1017.7
20260902033333 26 340 0.0 4.8 0.00 0.00 0.00 78 1017.7
20260902033308 26 340 0.0 1.6 0.00 0.00 0.00 79 1017.7
20260902033021 26 340 0.0 0.0 0.00 0.00 0.00 79 1017.7
20260902032929 26 340 0.0 0.0 0.00 0.00 0.00 79 1017.7
20260902032816 26 340 0.0 0.0 0.00 0.00 0.00 79 1017.8
20260902032726 26 340 0.0 0.0 0.00 0.00 0.00 79 1017.7
20260902032653 26 340 0.0 0.0 0.00 0.00 0.00 79 1017.7
20260902032517 26 340 0.0 0.0 0.00 0.00 0.00 79 1017.8
20260902032424 26 340 0.0 0.0 0.00 0.00 0.00 80 1017.7
20260902032331 26 340 0.0 0.0 0.00 0.00 0.00 80 1017.8
20260902032217 26 340 0.0 0.0 0.00 0.00 0.00 79 1017.8
20260902032128 26 340 0.0 0.0 0.00 0.00 0.00 79 1017.8
20260902032036 26 340 0.0 0.0 0.00 0.00 0.00 80 1017.8
20260902031922 26 340 0.0 0.0 0.00 0.00 0.00 80 1017.8
20260902031849 26 340 0.0 0.0 0.00 0.00 0.00 77 1017.9
20260902031758 26 340 0.0 0.0 0.00 0.00 0.00 77 1017.9
20260902031516 26 340 0.0 0.0 0.00 0.00 0.00 77 1017.8
20260902031442 26 340 0.0 0.0 0.00 0.00 0.00 77 1017.9
20260902031327 26 340 0.0 0.0 0.00 0.00 0.00 77 1017.8
20260902031233 26 340 0.0 0.0 0.00 0.00 0.00 77 1017.9
20260902031120 26 340 0.0 0.0 0.00 0.00 0.00 76 1017.7
20260902031026 27 340 0.0 0.0 0.00 0.00 0.00 76 1017.8
20260902030916 27 340 0.0 0.0 0.00 0.00 0.00 76 1017.9
20260902030843 27 340 0.0 0.0 0.00 0.00 0.00 76 1017.8
20260902030730 27 340 0.0 0.0 0.00 0.00 0.00 76 1017.9
20260902030617 27 340 0.0 0.0 0.00 0.00 0.00 77 1017.7
20260902030545 27 340 0.0 0.0 0.00 0.00 0.00 77 1017.8
20260902030450 27 340 0.0 0.0 0.00 0.00 0.00 77 1017.8
20260902030316 27 340 0.0 0.0 0.00 0.00 0.00 78 1017.8
20260902030250 27 340 0.0 0.0 0.00 0.00 0.00 79 1017.8
20260902030023 27 340 0.0 0.0 0.00 0.00 0.00 78 1017.8
20260902025930 27 340 0.0 0.0 0.00 0.00 0.00 77 1017.8
20260902025817 27 340 0.0 0.0 0.00 0.00 0.00 77 1017.8
20260902025727 27 340 0.0 0.0 0.00 0.00 0.00 77 1017.8
20260902025635 27 340 0.0 0.0 0.00 0.00 0.00 77 1017.8
20260902025523 27 340 0.0 0.0 0.00 0.00 0.00 77 1017.8
20260902025431 27 340 0.0 0.0 0.00 0.00 0.00 77 1017.9
20260902025316 27 340 0.0 0.0 0.00 0.00 0.00 78 1017.9
20260902025223 27 340 0.0 0.0 0.00 0.00 0.00 78 1017.8
20260902025135 27 340 0.0 0.0 0.00 0.00 0.00 78 1017.9
20260902025022 27 340 0.0 0.0 0.00 0.00 0.00 78 1017.9
20260902024951 27 340 0.0 0.0 0.00 0.00 0.00 78 1017.9
20260902024816 27 340 0.0 0.0 0.00 0.00 0.00 78 1017.9
20260902024751 27 340 0.0 0.0 0.00 0.00 0.00 78 1017.9
20260902024523 27 340 0.0 0.0 0.00 0.00 0.00 78 1017.8
20260902024450 27 340 0.0 0.0 0.00 0.00 0.00 78 1017.8
20260902024317 27 340 0.0 0.0 0.00 0.00 0.00 78 1017.9
20260902024245 27 340 0.0 0.0 0.00 0.00 0.00 77 1017.8
20260902024131 27 340 0.0 0.0 0.00 0.00 0.00 77 1017.8
20260902024017 27 340 0.0 0.0 0.00 0.00 0.00 78 1017.8
20260902023928 27 340 0.0 0.0 0.00 0.00 0.00 78 1017.7
20260902023834 27 340 0.0 0.0 0.00 0.00 0.00 78 1017.7
20260902023721 27 340 0.0 0.0 0.00 0.00 0.00 77 1017.7
20260902023628 27 340 0.0 0.0 0.00 0.00 0.00 77 1017.8
20260902023535 27 340 0.0 1.6 0.00 0.00 0.00 77 1017.8
20260902023427 27 340 0.0 1.6 0.00 0.00 0.00 77 1017.7
20260902023354 27 340 0.0 1.6 0.00 0.00 0.00 77 1017.7
20260902023303 27 340 0.0 3.2 0.00 0.00 0.00 77 1017.7
20260902023056 27 340 0.0 3.2 0.00 0.00 0.00 77 1017.7
20260902022920 27 340 0.0 4.8 0.00 0.00 0.00 76 1017.7
20260902022828 27 340 0.0 4.8 0.00 0.00 0.00 76 1017.7
20260902022718 27 340 0.0 4.8 0.00 0.00 0.00 75 1017.7
20260902022626 27 340 0.0 4.8 0.00 0.00 0.00 74 1017.6
20260902022532 27 340 1.6 4.8 0.00 0.00 0.00 74 1017.6
20260902022419 27 340 1.6 4.8 0.00 0.00 0.00 73 1017.6
20260902022325 27 340 3.2 4.8 0.00 0.00 0.00 73 1017.6
20260902022235 27 340 3.2 4.8 0.00 0.00 0.00 72 1017.6
20260902022142 27 340 3.2 4.8 0.00 0.00 0.00 72 1017.6
20260902022028 27 340 3.2 4.8 0.00 0.00 0.00 72 1017.6
20260902021934 27 340 3.2 4.8 0.00 0.00 0.00 72 1017.6
20260902021820 27 340 3.2 4.8 0.00 0.00 0.00 73 1017.7
20260902021753 27 340 3.2 4.8 0.00 0.00 0.00 73 1017.7
20260902021526 28 340 3.2 4.8 0.00 0.00 0.00 72 1017.6
20260902021433 28 340 3.2 4.8 0.00 0.00 0.00 72 1017.6
20260902021319 28 340 3.2 4.8 0.00 0.00 0.00 72 1017.6
20260902021246 28 340 3.2 4.8 0.00 0.00 0.00 72 1017.5
20260902021133 28 340 3.2 4.8 0.00 0.00 0.00 73 1017.6
20260902021025 28 340 3.2 3.2 0.00 0.00 0.00 73 1017.6
20260902020953 28 340 1.6 3.2 0.00 0.00 0.00 73 1017.5
20260902020818 28 340 1.6 3.2 0.00 0.00 0.00 73 1017.5
20260902020725 28 340 1.6 3.2 0.00 0.00 0.00 73 1017.5
20260902020632 28 340 1.6 3.2 0.00 0.00 0.00 73 1017.5
20260902020518 28 340 1.6 3.2 0.00 0.00 0.00 73 1017.5
20260902020451 28 340 1.6 3.2 0.00 0.00 0.00 72 1017.4
20260902020356 28 340 3.2 3.2 0.00 0.00 0.00 72 1017.4
20260902020306 28 340 3.2 3.2 0.00 0.00 0.00 70 1017.4
20260902020040 28 340 3.2 3.2 0.00 0.00 0.00 70 1017.4
20260902015927 28 340 1.6 3.2 0.00 0.00 0.00 70 1017.4
20260902015817 28 340 1.6 3.2 0.00 0.00 0.00 70 1017.4
20260902015725 28 340 1.6 3.2 0.00 0.00 0.00 70 1017.4
20260902015652 28 340 1.6 3.2 0.00 0.00 0.00 70 1017.4
20260902015538 28 340 1.6 3.2 0.00 0.00 0.00 70 1017.4
20260902015424 28 340 3.2 3.2 0.00 0.00 0.00 70 1017.4
20260902015332 28 340 1.6 3.2 0.00 0.00 0.00 71 1017.4
20260902015219 28 340 0.0 3.2 0.00 0.00 0.00 72 1017.3
20260902015129 28 340 0.0 0.0 0.00 0.00 0.00 72 1017.4
20260902015016 28 340 0.0 0.0 0.00 0.00 0.00 72 1017.4
20260902014922 28 340 0.0 0.0 0.00 0.00 0.00 72 1017.4
20260902014849 28 340 0.0 0.0 0.00 0.00 0.00 72 1017.4
20260902014759 29 340 0.0 0.0 0.00 0.00 0.00 72 1017.4
20260902014516 29 340 0.0 0.0 0.00 0.00 0.00 71 1017.4
20260902014423 29 340 0.0 0.0 0.00 0.00 0.00 71 1017.3
20260902014330 29 340 0.0 0.0 0.00 0.00 0.00 71 1017.2
20260902014217 29 340 0.0 0.0 0.00 0.00 0.00 71 1017.3
20260902014124 29 340 0.0 0.0 0.00 0.00 0.00 70 1017.3
20260902014034 29 340 0.0 0.0 0.00 0.00 0.00 70 1017.3
20260902013921 29 340 0.0 0.0 0.00 0.00 0.00 70 1017.3
20260902013849 29 340 0.0 0.0 0.00 0.00 0.00 70 1017.2
20260902013735 29 340 0.0 0.0 0.00 0.00 0.00 70 1017.1
20260902013621 29 340 0.0 0.0 0.00 0.00 0.00 70 1017.2
20260902013528 29 340 0.0 0.0 0.00 0.00 0.00 69 1017.2
20260902013440 29 340 0.0 0.0 0.00 0.00 0.00 69 1017.2
20260902013326 30 340 0.0 0.0 0.00 0.00 0.00 69 1017.2
20260902013256 30 340 0.0 0.0 0.00 0.00 0.00 69 1017.2
20260902013048 30 340 0.0 0.0 0.00 0.00 0.00 69 1017.2
20260902012934 30 340 0.0 0.0 0.00 0.00 0.00 69 1017.2
20260902012824 30 340 0.0 0.0 0.00 0.00 0.00 68 1017.1
20260902012731 30 340 0.0 0.0 0.00 0.00 0.00 68 1017.1
20260902012617 30 340 0.0 0.0 0.00 0.00 0.00 69 1017.1
20260902012524 30 340 0.0 0.0 0.00 0.00 0.00 69 1017.1
20260902012433 30 340 0.0 0.0 0.00 0.00 0.00 68 1017.1
20260902012319 30 340 0.0 0.0 0.00 0.00 0.00 68 1017.1
20260902012249 30 340 0.0 0.0 0.00 0.00 0.00 68 1017.0
20260902012154 30 340 0.0 1.6 0.00 0.00 0.00 67 1017.1
20260902012041 30 340 0.0 3.2 0.00 0.00 0.00 67 1017.1
20260902011927 30 340 0.0 3.2 0.00 0.00 0.00 67 1017.0
20260902011856 30 340 0.0 3.2 0.00 0.00 0.00 67 1017.0
20260902011826 30 340 0.0 3.2 0.00 0.00 0.00 67 1017.1
20260902011520 30 340 0.0 3.2 0.00 0.00 0.00 65 1017.0
20260902011427 30 340 0.0 3.2 0.00 0.00 0.00 66 1017.0
20260902011333 30 340 1.6 3.2 0.00 0.00 0.00 65 1017.0
20260902011220 31 340 1.6 3.2 0.00 0.00 0.00 64 1017.0
20260902011127 31 340 1.6 3.2 0.00 0.00 0.00 65 1017.0
20260902011034 31 202 1.6 3.2 0.00 0.00 0.00 66 1017.0
20260902010924 31 202 1.6 3.2 0.00 0.00 0.00 64 1017.0
20260902010831 31 202 1.6 3.2 0.00 0.00 0.00 64 1017.0
20260902010738 31 202 0.0 3.2 0.00 0.00 0.00 63 1017.0
20260902010623 31 202 0.0 3.2 0.00 0.00 0.00 62 1017.0
20260902010530 31 202 0.0 3.2 0.00 0.00 0.00 62 1017.0
20260902010416 31 202 0.0 3.2 0.00 0.00 0.00 61 1017.0
20260902010329 31 202 0.0 4.8 0.00 0.00 0.00 62 1017.0
20260902010259 31 202 0.0 4.8 0.00 0.00 0.00 62 1017.0
20260902010032 31 202 0.0 4.8 0.00 0.00 0.00 62 1017.0
20260902005919 31 202 1.6 4.8 0.00 0.00 0.00 61 1017.0
20260902005829 31 202 1.6 4.8 0.00 0.00 0.00 61 1017.1
20260902005756 31 202 1.6 6.4 0.00 0.00 0.00 61 1017.0
20260902005622 31 202 3.2 6.4 0.00 0.00 0.00 61 1017.0
20260902005530 31 202 3.2 6.4 0.00 0.00 0.00 61 1017.1
20260902005416 31 200 3.2 6.4 0.00 0.00 0.00 61 1017.0
20260902005324 31 200 1.6 6.4 0.00 0.00 0.00 62 1017.0
20260902005216 31 200 3.2 6.4 0.00 0.00 0.00 61 1017.0
20260902005124 31 200 3.2 6.4 0.00 0.00 0.00 62 1017.0
20260902005030 31 202 3.2 6.4 0.00 0.00 0.00 61 1017.0
20260902004937 31 206 3.2 6.4 0.00 0.00 0.00 61 1016.9
20260902004843 31 194 3.2 6.4 0.00 0.00 0.00 61 1017.0
20260902004817 31 192 1.6 6.4 0.00 0.00 0.00 61 1017.0
20260902004529 31 193 3.2 6.4 0.00 0.00 0.00 61 1017.0
20260902004416 31 193 1.6 6.4 0.00 0.00 0.00 61 1016.9
20260902004323 31 209 3.2 6.4 0.00 0.00 0.00 61 1017.0
20260902004249 31 209 3.2 6.4 0.00 0.00 0.00 61 1017.1
20260902004134 31 175 4.8 6.4 0.00 0.00 0.00 61 1017.0
20260902004024 31 192 4.8 6.4 0.00 0.00 0.00 62 1017.0
20260902003930 31 202 1.6 4.8 0.00 0.00 0.00 63 1016.9
20260902003818 31 209 0.0 3.2 0.00 0.00 0.00 64 1016.9
20260902003746 31 207 0.0 3.2 0.00 0.00 0.00 64 1016.9
20260902003631 31 207 1.6 3.2 0.00 0.00 0.00 64 1017.0
20260902003517 31 207 1.6 3.2 0.00 0.00 0.00 64 1016.9
20260902003443 31 269 1.6 4.8 0.00 0.00 0.00 63 1017.0
20260902003332 31 269 1.6 4.8 0.00 0.00 0.00 63 1016.9
20260902003302 31 274 1.6 4.8 0.00 0.00 0.00 63 1016.9
20260902003035 32 275 1.6 4.8 0.00 0.00 0.00 63 1016.9
20260902002921 32 275 1.6 4.8 0.00 0.00 0.00 62 1016.9
20260902002826 32 275 1.6 6.4 0.00 0.00 0.00 62 1017.0
20260902002717 32 275 3.2 8.0 0.00 0.00 0.00 62 1016.9
20260902002623 32 275 3.2 8.0 0.00 0.00 0.00 62 1016.9
20260902002531 32 273 3.2 8.0 0.00 0.00 0.00 61 1016.9
20260902002438 32 268 3.2 8.0 0.00 0.00 0.00 61 1017.0
20260902002325 32 281 1.6 8.0 0.00 0.00 0.00 61 1017.0
20260902002231 32 279 3.2 8.0 0.00 0.00 0.00 59 1016.9
20260902002121 32 238 3.2 8.0 0.00 0.00 0.00 58 1016.9
20260902002028 32 219 4.8 8.0 0.00 0.00 0.00 58 1016.9
20260902001937 32 193 4.8 8.0 0.00 0.00 0.00 58 1016.9
20260902001842 32 192 4.8 8.0 0.00 0.00 0.00 58 1016.9
20260902001812 32 214 4.8 6.4 0.00 0.00 0.00 58 1016.9
20260902001548 32 209 4.8 6.4 0.00 0.00 0.00 58 1016.9
20260902001454 32 205 4.8 6.4 0.00 0.00 0.00 58 1016.8
20260902001320 32 192 4.8 8.0 0.00 0.00 0.00 58 1016.9
20260902001226 32 192 3.2 8.0 0.00 0.00 0.00 58 1016.9
20260902001134 32 212 3.2 8.0 0.00 0.00 0.00 58 1016.8
20260902001020 32 194 3.2 8.0 0.00 0.00 0.00 58 1016.9
20260902000931 32 187 4.8 8.0 0.00 0.00 0.00 58 1016.9
20260902000818 32 196 4.8 8.0 0.00 0.00 0.00 58 1016.9
20260902000744 32 219 4.8 8.0 0.00 0.00 0.00 58 1016.9
20260902000630 32 221 4.8 8.0 0.00 0.00 0.00 58 1016.9
20260902000536 32 187 4.8 8.0 0.00 0.00 0.00 58 1016.9
20260902000423 32 197 4.8 8.0 0.00 0.00 0.00 58 1017.0
20260902000333 32 198 4.8 8.0 0.00 0.00 0.00 58 1017.0
20260902000304 33 214 4.8 8.0 0.00 0.00 0.00 58 1017.0
20260902000016 33 213 3.2 4.8 0.00 0.00 0.00 60 1017.0
20260901235923 33 263 3.2 4.8 0.00 0.00 0.00 59 1017.0
20260901235830 33 263 3.2 4.8 0.00 0.00 0.00 59 1017.0
20260901235719 33 264 3.2 4.8 0.00 0.00 0.00 58 1017.0
20260901235628 33 272 3.2 4.8 0.00 0.00 0.00 58 1017.1
20260901235535 33 279 1.6 4.8 0.00 0.00 0.00 57 1017.0
20260901235421 33 242 1.6 3.2 0.00 0.00 0.00 57 1017.0
20260901235328 33 216 1.6 3.2 0.00 0.00 0.00 54 1016.9
20260901235218 33 211 1.6 4.8 0.00 0.00 0.00 54 1017.0
20260901235125 33 211 1.6 4.8 0.00 0.00 0.00 54 1016.9
20260901235053 33 201 1.6 6.4 0.00 0.00 0.00 54 1017.0
20260901234919 33 201 1.6 6.4 0.00 0.00 0.00 54 1017.0
20260901234826 33 201 1.6 6.4 0.00 0.00 0.00 54 1017.0
20260901234802 33 202 1.6 6.4 0.00 0.00 0.00 53 1017.0
20260901234533 33 203 3.2 6.4 0.00 0.00 0.00 53 1017.0
20260901234441 33 228 3.2 6.4 0.00 0.00 0.00 53 1017.0
20260901234327 33 194 3.2 6.4 0.00 0.00 0.00 53 1017.0
20260901234235 33 212 3.2 6.4 0.00 0.00 0.00 53 1016.9
20260901234122 33 180 1.6 4.8 0.00 0.00 0.00 53 1017.0
20260901234032 33 181 1.6 4.8 0.00 0.00 0.00 54 1017.0
20260901233940 33 181 1.6 6.4 0.00 0.00 0.00 54 1016.9
20260901233826 33 195 1.6 6.4 0.00 0.00 0.00 52 1016.9
20260901233733 33 202 1.6 6.4 0.00 0.00 0.00 52 1016.9
20260901233619 33 202 1.6 6.4 0.00 0.00 0.00 52 1017.0
20260901233526 33 202 1.6 6.4 0.00 0.00 0.00 51 1017.0
20260901233418 33 201 1.6 6.4 0.00 0.00 0.00 50 1016.9
20260901233325 34 201 1.6 6.4 0.00 0.00 0.00 51 1017.0
20260901233255 34 201 3.2 6.4 0.00 0.00 0.00 51 1017.0
20260901233029 34 170 3.2 4.8 0.00 0.00 0.00 52 1016.9
20260901232920 34 170 3.2 6.4 0.00 0.00 0.00 51 1016.9
20260901232827 34 165 1.6 4.8 0.00 0.00 0.00 51 1016.9
20260901232754 34 165 1.6 4.8 0.00 0.00 0.00 51 1016.9
20260901232620 34 165 1.6 4.8 0.00 0.00 0.00 52 1016.9
20260901232526 34 127 1.6 4.8 0.00 0.00 0.00 53 1017.0
20260901232432 34 127 1.6 6.4 0.00 0.00 0.00 52 1017.0
20260901232324 34 127 3.2 6.4 0.00 0.00 0.00 53 1017.0
20260901232231 34 123 1.6 6.4 0.00 0.00 0.00 50 1017.0
20260901232118 34 198 0.0 6.4 0.00 0.00 0.00 50 1017.0
20260901232045 34 198 0.0 6.4 0.00 0.00 0.00 50 1017.0
20260901231931 34 198 3.2 6.4 0.00 0.00 0.00 51 1017.0
20260901231820 34 198 3.2 8.0 0.00 0.00 0.00 51 1017.0
20260901231755 34 198 4.8 8.0 0.00 0.00 0.00 51 1017.0
20260901231528 34 207 3.2 8.0 0.00 0.00 0.00 51 1016.9
20260901231435 34 221 3.2 8.0 0.00 0.00 0.00 51 1016.9
20260901231342 34 215 3.2 8.0 0.00 0.00 0.00 51 1017.0
20260901231226 34 213 4.8 8.0 0.00 0.00 0.00 52 1017.0
20260901231116 34 205 4.8 8.0 0.00 0.00 0.00 52 1016.9
20260901231023 34 219 4.8 8.0 0.00 0.00 0.00 52 1016.9
20260901230932 34 200 4.8 6.4 0.00 0.00 0.00 51 1016.9
20260901230818 34 209 4.8 6.4 0.00 0.00 0.00 52 1017.0
20260901230746 34 173 6.4 6.4 0.00 0.00 0.00 51 1016.9
20260901230631 34 194 4.8 6.4 0.00 0.00 0.00 52 1017.0
20260901230541 34 201 3.2 6.4 0.00 0.00 0.00 51 1017.0
20260901230426 34 209 3.2 6.4 0.00 0.00 0.00 51 1017.0
20260901230334 34 221 3.2 6.4 0.00 0.00 0.00 51 1017.0
20260901230304 34 196 3.2 6.4 0.00 0.00 0.00 51 1017.0
20260901230017 34 211 3.2 4.8 0.00 0.00 0.00 51 1017.0
20260901225929 34 227 1.6 4.8 0.00 0.00 0.00 50 1017.0
20260901225835 34 92 1.6 4.8 0.00 0.00 0.00 48 1016.9
20260901225740 34 155 1.6 4.8 0.00 0.00 0.00 48 1016.9
20260901225626 34 155 3.2 4.8 0.00 0.00 0.00 48 1016.9
20260901225533 34 155 3.2 4.8 0.00 0.00 0.00 47 1017.0
20260901225441 34 155 3.2 4.8 0.00 0.00 0.00 48 1016.9
20260901225330 34 117 1.6 4.8 0.00 0.00 0.00 49 1016.9
20260901225235 34 143 1.6 4.8 0.00 0.00 0.00 48 1016.9
20260901225122 35 66 1.6 4.8 0.00 0.00 0.00 49 1016.9
20260901225029 35 49 1.6 4.8 0.00 0.00 0.00 48 1017.0
20260901224957 35 78 3.2 4.8 0.00 0.00 0.00 48 1016.9
20260901224822 35 109 3.2 4.8 0.00 0.00 0.00 49 1016.9
20260901224756 35 109 3.2 4.8 0.00 0.00 0.00 49 1016.9
20260901224529 35 126 1.6 4.8 0.00 0.00 0.00 47 1016.9
20260901224418 35 130 1.6 4.8 0.00 0.00 0.00 47 1016.9
20260901224324 35 355 1.6 4.8 0.00 0.00 0.00 48 1016.9
20260901224230 35 88 1.6 4.8 0.00 0.00 0.00 47 1016.9
20260901224121 35 355 1.6 8.0 0.00 0.00 0.00 47 1016.9
20260901224028 35 355 1.6 8.0 0.00 0.00 0.00 47 1016.8
20260901223935 35 355 0.0 8.0 0.00 0.00 0.00 48 1016.9
20260901223843 35 355 1.6 8.0 0.00 0.00 0.00 47 1016.9
20260901223728 35 355 1.6 8.0 0.00 0.00 0.00 46 1016.9
20260901223618 35 355 3.2 8.0 0.00 0.00 0.00 46 1016.9
20260901223524 35 33 3.2 8.0 0.00 0.00 0.00 46 1016.8
20260901223432 35 33 3.2 8.0 0.00 0.00 0.00 47 1016.8
20260901223358 35 28 3.2 9.7 0.00 0.00 0.00 47 1016.8
20260901223309 35 39 3.2 9.7 0.00 0.00 0.00 47 1016.8
20260901223025 35 94 3.2 9.7 0.00 0.00 0.00 47 1016.8
20260901222931 35 40 3.2 9.7 0.00 0.00 0.00 48 1016.8
20260901222819 35 49 3.2 9.7 0.00 0.00 0.00 48 1016.8
20260901222728 35 88 3.2 9.7 0.00 0.00 0.00 48 1016.8
20260901222633 35 55 1.6 6.4 0.00 0.00 0.00 50 1016.7
20260901222519 35 57 3.2 6.4 0.00 0.00 0.00 48 1016.8
20260901222432 35 74 3.2 6.4 0.00 0.00 0.00 48 1016.7
20260901222318 35 355 3.2 6.4 0.00 0.00 0.00 47 1016.8
20260901222225 35 325 1.6 6.4 0.00 0.00 0.00 47 1016.8
20260901222131 35 355 1.6 6.4 0.00 0.00 0.00 47 1016.7
20260901222019 35 355 1.6 6.4 0.00 0.00 0.00 47 1016.7
20260901221929 35 355 1.6 6.4 0.00 0.00 0.00 46 1016.8
20260901221807 35 355 3.2 6.4 0.00 0.00 0.00 47 1016.8
20260901221540 35 34 3.2 6.4 0.00 0.00 0.00 47 1016.8
20260901221426 35 304 3.2 9.7 0.00 0.00 0.00 47 1016.7
20260901221317 35 343 1.6 9.7 0.00 0.00 0.00 46 1016.7
20260901221224 35 113 1.6 9.7 0.00 0.00 0.00 46 1016.8
20260901221150 35 113 3.2 9.7 0.00 0.00 0.00 46 1016.8
20260901221035 35 151 3.2 9.7 0.00 0.00 0.00 46 1016.7
20260901220942 35 190 1.6 9.7 0.00 0.00 0.00 46 1016.7
20260901220827 35 230 1.6 9.7 0.00 0.00 0.00 45 1016.7
20260901220716 35 82 4.8 9.7 0.00 0.00 0.00 46 1016.7
20260901220623 35 92 4.8 9.7 0.00 0.00 0.00 47 1016.7
20260901220532 35 80 4.8 8.0 0.00 0.00 0.00 46 1016.8
20260901220419 35 71 3.2 8.0 0.00 0.00 0.00 47 1016.7
20260901220346 35 132 3.2 8.0 0.00 0.00 0.00 48 1016.7
20260901220301 35 59 3.2 6.4 0.00 0.00 0.00 45 1016.7
20260901220033 35 157 1.6 6.4 0.00 0.00 0.00 46 1016.7
20260901215920 36 111 1.6 6.4 0.00 0.00 0.00 47 1016.8
20260901215828 36 111 3.2 6.4 0.00 0.00 0.00 45 1016.7
20260901215735 36 111 4.8 6.4 0.00 0.00 0.00 46 1016.8
20260901215622 36 74 4.8 6.4 0.00 0.00 0.00 48 1016.8
20260901215553 36 94 4.8 6.4 0.00 0.00 0.00 45 1016.8
20260901215418 36 55 4.8 8.0 0.00 0.00 0.00 45 1016.7
20260901215325 36 84 4.8 8.0 0.00 0.00 0.00 45 1016.7
20260901215232 36 84 4.8 9.7 0.00 0.00 0.00 46 1016.7
20260901215120 36 123 3.2 9.7 0.00 0.00 0.00 45 1016.8
20260901215027 36 140 4.8 9.7 0.00 0.00 0.00 44 1016.7
20260901214919 36 219 4.8 9.7 0.00 0.00 0.00 44 1016.7
20260901214826 36 207 4.8 9.7 0.00 0.00 0.00 45 1016.7
20260901214757 36 163 4.8 9.7 0.00 0.00 0.00 45 1016.7
20260901214529 36 71 4.8 12.9 0.00 0.00 0.00 44 1016.7
20260901214439 36 75 6.4 12.9 0.00 0.00 0.00 46 1016.7
20260901214325 36 15 6.4 12.9 0.00 0.00 0.00 46 1016.7
20260901214232 36 74 4.8 12.9 0.00 0.00 0.00 46 1016.7
20260901214118 36 360 4.8 12.9 0.00 0.00 0.00 47 1016.7
20260901214025 36 26 4.8 12.9 0.00 0.00 0.00 46 1016.7
20260901213934 36 5 6.4 12.9 0.00 0.00 0.00 47 1016.7
20260901213825 36 12 6.4 12.9 0.00 0.00 0.00 46 1016.7
20260901213732 36 15 6.4 9.7 0.00 0.00 0.00 46 1016.8
20260901213617 36 5 4.8 9.7 0.00 0.00 0.00 46 1016.7
20260901213545 36 34 4.8 9.7 0.00 0.00 0.00 46 1016.7
20260901213430 36 31 4.8 9.7 0.00 0.00 0.00 47 1016.7
20260901213317 36 30 6.4 9.7 0.00 0.00 0.00 47 1016.7
20260901213252 36 26 6.4 9.7 0.00 0.00 0.00 47 1016.7
20260901213025 36 30 6.4 11.3 0.00 0.00 0.00 46 1016.7
20260901212952 36 90 4.8 9.7 0.00 0.00 0.00 47 1016.7
20260901212819 36 5 4.8 9.7 0.00 0.00 0.00 46 1016.7
20260901212725 35 49 3.2 9.7 0.00 0.00 0.00 47 1016.8
20260901212635 35 331 1.6 9.7 0.00 0.00 0.00 47 1016.7
20260901212523 35 107 1.6 9.7 0.00 0.00 0.00 47 1016.8
20260901212429 35 81 1.6 9.7 0.00 0.00 0.00 46 1016.7
20260901212317 35 155 3.2 9.7 0.00 0.00 0.00 46 1016.9
20260901212226 35 80 4.8 9.7 0.00 0.00 0.00 47 1016.7
20260901212116 35 124 3.2 9.7 0.00 0.00 0.00 48 1016.8
20260901212023 35 130 3.2 9.7 0.00 0.00 0.00 47 1016.7
20260901211930 35 136 4.8 9.7 0.00 0.00 0.00 46 1016.8